FW6434 Weather Reports


time (UTC)temp
F
wind
direction
speed
knots
gust
knots
rain 1hr
in
rain 24hr
in
rain mn
in
humidity
%
barometer
mb
20260506171051 73 202 2.6 7.0 0.00 0.00 0.00 55 1004.8
20260506170828 73 221 4.3 7.0 0.00 0.00 0.00 55 1005.0
20260506170812 73 217 1.7 2.6 0.00 0.00 0.00 56 1004.8
20260506170755 73 194 0.0 3.5 0.00 0.00 0.00 55 1004.8
20260506170445 73 224 1.7 3.5 0.00 0.00 0.00 55 1005.0
20260506170345 73 203 0.9 3.5 0.00 0.00 0.00 56 1004.9
20260506170244 73 109 0.0 3.5 0.00 0.00 0.00 55 1004.9
20260506170145 73 190 0.0 3.5 0.00 0.00 0.00 55 1004.9
20260506170059 73 196 0.0 3.5 0.00 0.00 0.00 55 1005.1
20260506165946 73 217 0.0 3.5 0.00 0.00 0.00 55 1005.0
20260506165916 73 211 0.0 3.5 0.00 0.00 0.00 55 1004.8
20260506165901 73 214 0.0 3.5 0.00 0.00 0.00 55 1004.8
20260506165542 73 232 0.9 2.6 0.00 0.00 0.00 55 1004.8
20260506165443 73 222 1.7 2.6 0.00 0.00 0.00 55 1004.6
20260506165346 73 268 0.0 0.9 0.00 0.00 0.00 55 1004.9
20260506165323 73 201 0.9 0.9 0.00 0.00 0.00 55 1004.9
20260506165308 73 195 0.0 0.0 0.00 0.00 0.00 55 1004.9
20260506165040 73 191 0.0 0.0 0.00 0.00 0.00 55 1004.9
20260506164630 73 189 0.0 5.2 0.00 0.00 0.00 54 1004.8
20260506164529 73 196 0.0 5.2 0.00 0.00 0.00 54 1004.9
20260506164429 73 216 0.9 5.2 0.00 0.00 0.00 54 1004.9
20260506164329 73 207 3.5 5.2 0.00 0.00 0.00 54 1004.9
20260506164229 73 203 0.0 5.2 0.00 0.00 0.00 54 1005.1
20260506164129 73 180 0.0 5.2 0.00 0.00 0.00 54 1004.9
20260506164028 73 181 0.0 7.0 0.00 0.00 0.00 54 1004.8
20260506163929 73 222 0.9 7.0 0.00 0.00 0.00 54 1004.9
20260506163828 73 175 0.0 7.0 0.00 0.00 0.00 54 1005.1
20260506163729 73 176 0.0 7.0 0.00 0.00 0.00 54 1004.9
20260506163630 73 183 0.0 7.0 0.00 0.00 0.00 54 1005.0
20260506163528 73 177 0.0 7.0 0.00 0.00 0.00 54 1005.0
20260506163429 73 195 0.0 7.0 0.00 0.00 0.00 54 1005.0
20260506163329 73 240 0.9 7.0 0.00 0.00 0.00 54 1004.8
20260506163228 73 121 0.0 7.0 0.00 0.00 0.00 54 1004.9
20260506163128 73 196 2.6 7.0 0.00 0.00 0.00 54 1004.9
20260506163028 73 218 1.7 5.2 0.00 0.00 0.00 54 1005.0
20260506162928 73 188 0.0 5.2 0.00 0.00 0.00 54 1004.9
20260506162905 73 177 0.9 5.2 0.00 0.00 0.00 54 1005.1
20260506162848 73 189 0.0 5.2 0.00 0.00 0.00 54 1005.2
20260506162529 73 189 0.0 5.2 0.00 0.00 0.00 54 1005.0
20260506162428 73 229 1.7 5.2 0.00 0.00 0.00 54 1004.9
20260506162330 73 175 1.7 5.2 0.00 0.00 0.00 54 1005.1
20260506162228 73 188 0.0 5.2 0.00 0.00 0.00 54 1005.3
20260506162128 73 180 0.0 3.5 0.00 0.00 0.00 54 1005.4
20260506162041 73 219 2.6 6.1 0.00 0.00 0.00 54 1005.2
20260506161929 73 207 0.9 7.0 0.00 0.00 0.00 54 1005.0
20260506161824 74 187 0.9 7.0 0.00 0.00 0.00 53 1005.0
20260506161724 74 183 0.0 7.0 0.00 0.00 0.00 54 1005.2
20260506161624 74 190 0.0 7.0 0.00 0.00 0.00 54 1005.2
20260506161525 74 185 0.0 7.0 0.00 0.00 0.00 54 1005.1
20260506161425 74 196 0.0 7.0 0.00 0.00 0.00 54 1005.1
20260506161414 74 199 0.0 5.2 0.00 0.00 0.00 53 1005.0
20260506161409 74 210 0.0 2.6 0.00 0.00 0.00 52 1005.2
20260506161401 74 193 0.0 5.2 0.00 0.00 0.00 51 1005.3
20260506161355 74 196 0.9 7.0 0.00 0.00 0.00 53 1005.2
20260506161337 74 188 0.0 7.0 0.00 0.00 0.00 54 1005.4
20260506161321 74 190 0.0 7.0 0.00 0.00 0.00 54 1005.1
20260506161259 74 228 2.6 5.2 0.00 0.00 0.00 53 1005.1
20260506161242 74 196 0.0 5.2 0.00 0.00 0.00 53 1005.2
20260506161226 74 196 0.0 5.2 0.00 0.00 0.00 53 1005.2
20260506161211 74 188 0.0 5.2 0.00 0.00 0.00 54 1005.3
20260506161155 74 192 0.0 5.2 0.00 0.00 0.00 54 1005.0
20260506161138 74 199 0.0 5.2 0.00 0.00 0.00 53 1005.0
20260506160912 74 212 0.0 5.2 0.00 0.00 0.00 53 1005.2
20260506160854 74 194 0.9 5.2 0.00 0.00 0.00 53 1005.0
20260506160839 74 190 0.0 5.2 0.00 0.00 0.00 53 1005.1
20260506160556 74 182 0.0 2.6 0.00 0.00 0.00 53 1005.2
20260506160101 74 189 0.0 2.6 0.00 0.00 0.00 52 1005.1
20260506155824 74 210 0.0 2.6 0.00 0.00 0.00 52 1005.2
20260506155538 74 178 0.0 2.6 0.00 0.00 0.00 52 1005.2
20260506155522 74 205 0.0 2.6 0.00 0.00 0.00 52 1005.2
20260506155507 74 204 0.9 2.6 0.00 0.00 0.00 52 1005.0
20260506155445 74 192 0.0 2.6 0.00 0.00 0.00 52 1005.3
20260506155429 74 212 0.0 2.6 0.00 0.00 0.00 52 1005.2
20260506155152 74 198 0.0 2.6 0.00 0.00 0.00 52 1005.3
20260506154705 74 186 0.0 2.6 0.00 0.00 0.00 51 1005.3
20260506154648 74 163 0.0 2.6 0.00 0.00 0.00 52 1005.4
20260506154412 74 156 0.0 2.6 0.00 0.00 0.00 51 1005.3
20260506154357 74 184 0.0 5.2 0.00 0.00 0.00 51 1005.2
20260506154131 74 127 0.0 5.2 0.00 0.00 0.00 52 1005.2
20260506154114 74 185 0.0 5.2 0.00 0.00 0.00 52 1005.3
20260506154058 74 188 0.0 5.2 0.00 0.00 0.00 51 1005.3
20260506153822 74 157 0.0 5.2 0.00 0.00 0.00 51 1005.4
20260506153803 74 193 0.0 5.2 0.00 0.00 0.00 51 1005.3
20260506153537 74 109 0.0 5.2 0.00 0.00 0.00 51 1005.3
20260506153258 74 188 0.0 5.2 0.00 0.00 0.00 50 1005.6
20260506153242 74 209 1.7 6.1 0.00 0.00 0.00 50 1005.2
20260506153016 74 205 0.0 6.1 0.00 0.00 0.00 50 1005.6
20260506152916 74 196 0.0 6.1 0.00 0.00 0.00 50 1005.3
20260506152811 74 198 0.0 6.1 0.00 0.00 0.00 50 1005.3
20260506152710 74 175 0.0 6.1 0.00 0.00 0.00 50 1005.5
20260506152611 74 194 0.0 6.1 0.00 0.00 0.00 51 1005.6
20260506152510 74 188 0.0 6.1 0.00 0.00 0.00 50 1005.2
20260506152448 74 198 0.0 7.0 0.00 0.00 0.00 50 1005.5
20260506152430 74 188 0.0 7.0 0.00 0.00 0.00 50 1005.5
20260506152146 74 99 0.0 7.0 0.00 0.00 0.00 50 1005.4
20260506152123 74 211 2.6 7.0 0.00 0.00 0.00 50 1005.3
20260506152107 74 218 0.9 7.0 0.00 0.00 0.00 49 1005.5
20260506152050 74 241 1.7 7.0 0.00 0.00 0.00 49 1005.4
20260506152035 74 244 3.5 7.0 0.00 0.00 0.00 49 1005.5
20260506152019 74 215 0.9 7.8 0.00 0.00 0.00 49 1005.5
20260506151753 75 214 0.9 7.8 0.00 0.00 0.00 49 1005.4
20260506151211 75 183 0.0 7.8 0.00 0.00 0.00 49 1005.3
20260506151111 75 231 1.7 7.8 0.00 0.00 0.00 49 1005.6
20260506151011 75 212 3.5 7.8 0.00 0.00 0.00 49 1005.5
20260506150910 75 198 0.9 7.8 0.00 0.00 0.00 49 1005.4
20260506150807 75 189 0.0 7.8 0.00 0.00 0.00 49 1005.5
20260506150654 75 185 0.0 0.9 0.00 0.00 0.00 49 1005.2
20260506150553 75 198 0.0 1.7 0.00 0.00 0.00 49 1005.3
20260506150501 75 176 0.0 1.7 0.00 0.00 0.00 49 1005.5
20260506150453 76 179 0.0 1.7 0.00 0.00 0.00 49 1005.5
20260506150353 76 187 0.0 2.6 0.00 0.00 0.00 49 1005.3
20260506150304 76 186 0.0 3.5 0.00 0.00 0.00 49 1005.5
20260506150154 76 179 0.0 3.5 0.00 0.00 0.00 49 1005.6
20260506150052 76 130 0.0 3.5 0.00 0.00 0.00 50 1005.4
20260506150000 76 192 0.0 3.5 0.00 0.00 0.00 50 1005.2
20260506145952 76 192 0.0 3.5 0.00 0.00 0.00 49 1005.2
20260506145852 76 186 0.0 3.5 0.00 0.00 0.00 49 1005.4
20260506145752 76 192 0.0 3.5 0.00 0.00 0.00 49 1005.4
20260506145652 76 185 0.0 3.5 0.00 0.00 0.00 49 1005.4
20260506145541 76 171 0.9 6.1 0.00 0.00 0.00 49 1005.3
20260506145500 76 196 0.0 6.1 0.00 0.00 0.00 49 1005.5
20260506145440 76 198 0.9 6.1 0.00 0.00 0.00 48 1005.5
20260506145340 76 189 1.7 6.1 0.00 0.00 0.00 48 1005.6
20260506145315 76 250 0.9 6.1 0.00 0.00 0.00 48 1005.8
20260506145300 76 202 0.0 6.1 0.00 0.00 0.00 48 1005.5
20260506145000 76 184 0.0 8.7 0.00 0.00 0.00 49 1005.6
20260506144941 76 171 0.0 8.7 0.00 0.00 0.00 48 1005.6
20260506144840 76 186 0.0 8.7 0.00 0.00 0.00 50 1005.5
20260506144740 76 196 0.0 8.7 0.00 0.00 0.00 50 1005.7
20260506144706 76 207 0.0 7.0 0.00 0.00 0.00 47 1005.8
20260506144658 76 221 2.6 8.7 0.00 0.00 0.00 49 1005.6
20260506144642 76 216 0.0 8.7 0.00 0.00 0.00 49 1005.6
20260506144618 76 193 0.0 8.7 0.00 0.00 0.00 49 1005.5
20260506144600 76 201 0.0 8.7 0.00 0.00 0.00 49 1005.8
20260506144545 76 179 0.0 8.7 0.00 0.00 0.00 49 1005.7
20260506144528 76 188 0.9 8.7 0.00 0.00 0.00 49 1005.7
20260506144512 76 240 0.0 5.2 0.00 0.00 0.00 49 1005.7
20260506144458 76 195 1.7 5.2 0.00 0.00 0.00 48 1005.6
20260506144450 76 212 0.9 5.2 0.00 0.00 0.00 48 1005.6
20260506144436 77 177 0.0 5.2 0.00 0.00 0.00 48 1005.7
20260506144420 77 182 0.0 5.2 0.00 0.00 0.00 49 1005.6
20260506144405 77 194 0.0 5.2 0.00 0.00 0.00 48 1005.8
20260506144349 77 184 0.0 5.2 0.00 0.00 0.00 49 1005.7
20260506144334 77 140 0.9 5.2 0.00 0.00 0.00 48 1005.7
20260506144104 76 187 0.0 7.0 0.00 0.00 0.00 49 1005.6
20260506144048 76 164 0.0 7.0 0.00 0.00 0.00 48 1005.8
20260506144032 76 280 3.5 7.0 0.00 0.00 0.00 48 1005.9
20260506143545 76 187 0.0 7.0 0.00 0.00 0.00 48 1005.8
20260506143309 76 230 0.0 7.0 0.00 0.00 0.00 48 1005.9
20260506143254 76 184 0.0 7.0 0.00 0.00 0.00 49 1005.8
20260506143238 76 216 2.6 7.0 0.00 0.00 0.00 48 1005.8
20260506143225 76 228 4.3 8.7 0.00 0.00 0.00 48 1005.8
20260506142955 76 234 0.0 8.7 0.00 0.00 0.00 48 1005.8
20260506142240 75 178 0.0 11.3 0.00 0.00 0.00 49 1006.0
20260506141741 75 191 0.0 11.3 0.00 0.00 0.00 50 1006.2
20260506141725 75 176 0.0 11.3 0.00 0.00 0.00 49 1005.7
20260506141452 75 205 2.6 11.3 0.00 0.00 0.00 50 1006.2
20260506141443 75 194 0.0 11.3 0.00 0.00 0.00 49 1005.9
20260506141426 75 191 0.9 11.3 0.00 0.00 0.00 49 1005.8
20260506141105 75 256 2.6 11.3 0.00 0.00 0.00 49 1006.0
20260506141006 75 252 9.6 11.3 0.00 0.00 0.00 49 1005.8
20260506140938 75 180 1.7 8.7 0.00 0.00 0.00 49 1005.8
20260506140905 75 239 1.7 8.7 0.00 0.00 0.00 48 1005.9
20260506140805 75 255 0.9 8.7 0.00 0.00 0.00 48 1005.8
20260506140705 75 221 1.7 8.7 0.00 0.00 0.00 48 1005.8
20260506140605 75 133 0.0 8.7 0.00 0.00 0.00 48 1005.7
20260506140504 75 169 0.9 8.7 0.00 0.00 0.00 48 1005.6
20260506140437 75 206 1.7 8.7 0.00 0.00 0.00 48 1005.6
20260506140406 75 204 3.5 8.7 0.00 0.00 0.00 48 1005.8
20260506140304 75 223 1.7 7.8 0.00 0.00 0.00 49 1005.8
20260506140200 75 202 0.9 7.8 0.00 0.00 0.00 50 1005.9
20260506140101 75 230 3.5 7.8 0.00 0.00 0.00 50 1005.8
20260506135959 75 239 1.7 8.7 0.00 0.00 0.00 50 1005.7
20260506135946 75 208 1.7 8.7 0.00 0.00 0.00 50 1005.7
20260506135937 75 50 0.9 12.2 0.00 0.00 0.00 49 1006.2
20260506135921 75 250 3.5 12.2 0.00 0.00 0.00 49 1006.0
20260506135621 76 238 1.7 6.1 0.00 0.00 0.00 49 1005.9
20260506135614 75 167 0.0 12.2 0.00 0.00 0.00 49 1005.8
20260506135558 75 82 0.0 12.2 0.00 0.00 0.00 49 1005.9
20260506135546 75 188 2.6 12.2 0.00 0.00 0.00 49 1005.9
20260506135536 76 225 1.7 12.2 0.00 0.00 0.00 48 1006.0
20260506135518 76 225 3.5 12.2 0.00 0.00 0.00 48 1005.9
20260506135502 76 256 5.2 12.2 0.00 0.00 0.00 47 1005.8
20260506135225 76 216 7.0 12.2 0.00 0.00 0.00 47 1005.9
20260506135212 76 249 2.6 8.7 0.00 0.00 0.00 48 1005.7
20260506135203 76 227 7.8 8.7 0.00 0.00 0.00 48 1005.7
20260506134700 75 233 0.9 7.8 0.00 0.00 0.00 49 1006.2
20260506134643 75 203 3.5 7.8 0.00 0.00 0.00 49 1006.2
20260506134352 76 216 0.0 6.1 0.00 0.00 0.00 50 1005.9
20260506134251 76 264 1.7 5.2 0.00 0.00 0.00 51 1005.7
20260506134152 76 219 3.5 11.3 0.00 0.00 0.00 50 1005.9
20260506134134 76 200 1.7 11.3 0.00 0.00 0.00 51 1005.8
20260506134119 76 196 0.9 11.3 0.00 0.00 0.00 50 1006.0
20260506134105 76 202 0.9 11.3 0.00 0.00 0.00 51 1006.0
20260506133751 76 196 0.0 11.3 0.00 0.00 0.00 50 1006.0
20260506133654 76 174 0.0 11.3 0.00 0.00 0.00 50 1005.9
20260506133553 76 167 0.0 11.3 0.00 0.00 0.00 50 1005.8
20260506133452 76 222 1.7 11.3 0.00 0.00 0.00 49 1006.2
20260506133425 76 100 0.0 11.3 0.00 0.00 0.00 49 1005.8
20260506133353 76 230 0.9 11.3 0.00 0.00 0.00 49 1005.8
20260506133252 76 262 2.6 11.3 0.00 0.00 0.00 49 1005.8
20260506133217 76 136 0.9 13.9 0.00 0.00 0.00 50 1005.9
20260506133201 76 191 0.0 13.9 0.00 0.00 0.00 51 1006.0
20260506132918 76 203 0.9 13.9 0.00 0.00 0.00 50 1006.0
20260506132909 76 260 0.0 13.9 0.00 0.00 0.00 50 1006.0
20260506132853 76 162 0.0 13.9 0.00 0.00 0.00 50 1006.0
20260506132838 76 203 0.0 13.9 0.00 0.00 0.00 51 1005.9
20260506132601 75 196 1.7 13.9 0.00 0.00 0.00 51 1005.9
20260506132548 76 201 3.5 13.9 0.00 0.00 0.00 50 1006.0
20260506132539 76 307 4.3 13.9 0.00 0.00 0.00 51 1006.0
20260506132522 76 313 5.2 14.8 0.00 0.00 0.00 50 1006.3
20260506131940 76 196 1.7 14.8 0.00 0.00 0.00 50 1006.2
20260506131912 76 205 0.9 14.8 0.00 0.00 0.00 50 1006.0
20260506131842 76 194 0.0 14.8 0.00 0.00 0.00 51 1006.0
20260506131744 76 144 0.0 14.8 0.00 0.00 0.00 51 1006.2
20260506131732 76 220 3.5 12.2 0.00 0.00 0.00 51 1005.9
20260506131722 75 124 0.0 14.8 0.00 0.00 0.00 51 1006.0
20260506131706 75 205 0.9 14.8 0.00 0.00 0.00 51 1006.3
20260506131650 75 204 1.7 14.8 0.00 0.00 0.00 51 1006.0
20260506131637 75 182 9.6 14.8 0.00 0.00 0.00 50 1006.0
20260506131407 75 199 4.3 12.2 0.00 0.00 0.00 50 1005.9
20260506131142 75 228 4.3 12.2 0.00 0.00 0.00 50 1006.0
20260506131128 76 272 5.2 12.2 0.00 0.00 0.00 51 1006.0
20260506131112 76 236 5.2 12.2 0.00 0.00 0.00 51 1005.9
20260506130844 75 193 0.0 12.2 0.00 0.00 0.00 51 1006.3
20260506130828 75 157 0.0 12.2 0.00 0.00 0.00 53 1006.3
20260506130813 75 193 2.6 12.2 0.00 0.00 0.00 52 1006.3
20260506130537 76 257 8.7 12.2 0.00 0.00 0.00 50 1006.2
20260506130525 76 194 7.0 9.6 0.00 0.00 0.00 50 1006.2
20260506130206 76 173 0.0 9.6 0.00 0.00 0.00 49 1005.9
20260506130107 76 125 0.9 9.6 0.00 0.00 0.00 50 1006.0
20260506130017 77 227 5.2 9.6 0.00 0.00 0.00 50 1006.0
20260506130001 77 248 0.0 9.6 0.00 0.00 0.00 51 1005.8
20260506125947 77 208 0.9 9.6 0.00 0.00 0.00 50 1005.8
20260506125937 77 187 0.0 9.6 0.00 0.00 0.00 50 1005.9
20260506125922 77 180 0.0 9.6 0.00 0.00 0.00 50 1006.2
20260506125906 77 179 0.0 9.6 0.00 0.00 0.00 49 1006.3
20260506125632 77 199 1.7 8.7 0.00 0.00 0.00 50 1006.3
20260506125620 77 167 0.0 8.7 0.00 0.00 0.00 50 1006.3
20260506125348 76 134 0.9 13.0 0.00 0.00 0.00 51 1006.2
20260506125334 76 193 0.0 13.0 0.00 0.00 0.00 51 1006.0
20260506125318 76 188 0.0 13.0 0.00 0.00 0.00 50 1006.0
20260506125305 76 216 3.5 13.0 0.00 0.00 0.00 50 1006.3
20260506125249 76 230 0.9 13.0 0.00 0.00 0.00 51 1006.3
20260506125020 75 111 0.0 13.0 0.00 0.00 0.00 53 1006.3
20260506125004 75 214 5.2 13.0 0.00 0.00 0.00 51 1006.3
20260506124511 76 213 4.3 13.0 0.00 0.00 0.00 51 1006.4
20260506124224 76 135 0.0 11.3 0.00 0.00 0.00 51 1006.2
20260506124208 76 193 0.0 11.3 0.00 0.00 0.00 51 1006.3
20260506123902 75 212 0.0 8.7 0.00 0.00 0.00 53 1006.3
20260506123857 76 131 0.9 7.0 0.00 0.00 0.00 51 1006.2
20260506123845 76 78 1.7 7.0 0.00 0.00 0.00 51 1006.2
20260506123835 76 251 2.6 7.0 0.00 0.00 0.00 52 1006.2
20260506123818 75 281 4.3 7.0 0.00 0.00 0.00 52 1006.5
20260506123802 75 192 0.0 8.7 0.00 0.00 0.00 53 1006.4
20260506123747 75 216 3.5 8.7 0.00 0.00 0.00 53 1006.4
20260506123730 75 212 0.0 8.7 0.00 0.00 0.00 53 1006.3
20260506123501 75 247 0.9 13.0 0.00 0.00 0.00 53 1006.6
20260506123444 75 157 0.0 13.0 0.00 0.00 0.00 54 1006.3
20260506123209 75 204 0.9 13.0 0.00 0.00 0.00 53 1006.5
20260506123153 74 156 0.0 13.0 0.00 0.00 0.00 54 1006.5
20260506123143 74 143 0.0 13.0 0.00 0.00 0.00 54 1006.5
20260506122651 75 194 2.6 13.0 0.00 0.00 0.00 53 1006.6
20260506122636 75 314 0.0 13.0 0.00 0.00 0.00 54 1006.6
20260506122620 76 224 9.6 13.0 0.00 0.00 0.00 53 1006.5
20260506122608 76 219 6.1 9.6 0.00 0.00 0.00 53 1006.6
20260506122028 76 209 0.0 7.0 0.00 0.00 0.00 52 1006.4
20260506122006 76 177 0.0 7.8 0.00 0.00 0.00 52 1006.6
20260506121942 76 212 0.0 7.8 0.00 0.00 0.00 52 1006.4
20260506121618 76 195 0.9 7.8 0.00 0.00 0.00 51 1006.3
20260506121519 77 216 2.6 7.8 0.00 0.00 0.00 51 1006.3
20260506121420 77 178 0.0 7.8 0.00 0.00 0.00 51 1006.5
20260506121318 77 191 0.0 7.8 0.00 0.00 0.00 52 1006.6
20260506121216 76 198 0.0 7.8 0.00 0.00 0.00 53 1006.6
20260506121111 76 200 0.0 13.0 0.00 0.00 0.00 53 1006.5
20260506121049 76 145 0.9 13.0 0.00 0.00 0.00 52 1006.4
20260506121033 75 215 0.9 13.0 0.00 0.00 0.00 52 1006.4
20260506120806 75 192 0.9 13.0 0.00 0.00 0.00 52 1006.5
20260506120707 75 7 4.3 13.0 0.00 0.00 0.00 52 1006.6
20260506120625 74 241 1.7 13.9 0.00 0.00 0.00 54 1006.4
20260506120618 75 329 0.9 13.9 0.00 0.00 0.00 54 1006.6
20260506120602 74 217 3.5 13.9 0.00 0.00 0.00 53 1006.4
20260506120546 74 178 0.9 13.9 0.00 0.00 0.00 54 1006.6
20260506120529 74 241 1.7 13.9 0.00 0.00 0.00 54 1006.4
20260506120206 74 269 2.6 19.1 0.00 0.00 0.00 54 1006.6
20260506120142 74 219 7.0 19.1 0.00 0.00 0.00 53 1006.4
20260506120125 74 179 4.3 19.1 0.00 0.00 0.00 54 1006.3
20260506115806 75 197 1.7 19.1 0.00 0.00 0.00 54 1006.5
20260506115704 75 232 1.7 19.1 0.00 0.00 0.00 53 1006.3
20260506115615 75 209 0.9 19.1 0.00 0.00 0.00 53 1006.4
20260506115559 74 218 0.9 19.1 0.00 0.00 0.00 54 1006.5
20260506115544 74 210 2.6 19.1 0.00 0.00 0.00 55 1006.2
20260506115317 74 226 3.5 19.1 0.00 0.00 0.00 55 1006.3
20260506115300 74 207 0.9 13.0 0.00 0.00 0.00 54 1006.5
20260506115243 74 169 6.1 13.9 0.00 0.00 0.00 53 1006.5
20260506115226 74 196 2.6 13.9 0.00 0.00 0.00 53 1006.5
20260506114951 74 189 0.0 13.9 0.00 0.00 0.00 54 1006.3
20260506114634 74 262 3.5 13.9 0.00 0.00 0.00 55 1006.5
20260506114535 74 203 1.7 13.9 0.00 0.00 0.00 54 1006.4
20260506114437 74 312 1.7 13.9 0.00 0.00 0.00 55 1006.4
20260506114420 74 179 0.9 13.9 0.00 0.00 0.00 55 1006.3
20260506114406 74 207 1.7 13.9 0.00 0.00 0.00 55 1006.5
20260506114358 74 207 1.7 13.9 0.00 0.00 0.00 54 1006.5
20260506114112 75 339 0.9 11.3 0.00 0.00 0.00 54 1006.4
20260506114055 74 68 0.9 11.3 0.00 0.00 0.00 56 1006.2
20260506113808 74 189 4.3 13.9 0.00 0.00 0.00 55 1006.7
20260506113800 74 273 1.7 13.9 0.00 0.00 0.00 55 1006.4
20260506113744 74 214 0.9 13.9 0.00 0.00 0.00 55 1006.3
20260506113728 74 127 0.0 13.9 0.00 0.00 0.00 55 1006.3
20260506113712 74 230 0.9 13.9 0.00 0.00 0.00 56 1006.6
20260506113438 74 249 1.7 13.9 0.00 0.00 0.00 56 1006.4
20260506113100 74 233 7.0 13.9 0.00 0.00 0.00 55 1006.4
20260506113001 74 267 2.6 13.9 0.00 0.00 0.00 56 1006.3
20260506112900 74 131 6.1 13.9 0.00 0.00 0.00 56 1006.3
20260506112759 73 179 1.7 12.2 0.00 0.00 0.00 56 1006.0
20260506112744 73 206 0.0 12.2 0.00 0.00 0.00 57 1006.0
20260506112655 73 207 0.0 12.2 0.00 0.00 0.00 57 1006.6
20260506112554 74 234 5.2 12.2 0.00 0.00 0.00 56 1006.6
20260506112529 74 219 3.5 8.7 0.00 0.00 0.00 56 1006.3
20260506112513 74 207 3.5 7.0 0.00 0.00 0.00 56 1006.5
20260506112238 74 180 1.7 7.0 0.00 0.00 0.00 57 1006.4
20260506112153 74 208 0.9 7.0 0.00 0.00 0.00 56 1006.4
20260506112117 75 185 0.0 7.0 0.00 0.00 0.00 56 1006.5
20260506112100 75 238 0.0 7.0 0.00 0.00 0.00 55 1006.5
20260506111829 74 209 0.9 12.2 0.00 0.00 0.00 56 1006.5
20260506111810 74 192 0.0 7.8 0.00 0.00 0.00 56 1006.4
20260506111754 75 190 0.0 8.7 0.00 0.00 0.00 56 1006.7
20260506111529 75 173 0.0 9.6 0.00 0.00 0.00 55 1006.6
20260506111514 74 190 0.0 12.2 0.00 0.00 0.00 56 1006.5
20260506111459 74 209 0.0 12.2 0.00 0.00 0.00 55 1006.5
20260506111442 74 209 0.9 12.2 0.00 0.00 0.00 56 1006.5
20260506111129 74 175 0.0 12.2 0.00 0.00 0.00 55 1006.6
20260506111029 74 251 0.0 12.2 0.00 0.00 0.00 56 1006.3
20260506110928 74 194 0.9 12.2 0.00 0.00 0.00 56 1006.6
20260506110828 74 141 1.7 12.2 0.00 0.00 0.00 56 1006.5
20260506110724 74 151 0.0 12.2 0.00 0.00 0.00 56 1006.6
20260506110625 74 5 2.6 12.2 0.00 0.00 0.00 56 1006.4
20260506110524 75 140 0.9 12.2 0.00 0.00 0.00 56 1006.5
20260506110500 76 172 3.5 12.2 0.00 0.00 0.00 55 1006.3
20260506110446 76 172 0.0 12.2 0.00 0.00 0.00 56 1006.2
20260506110219 75 224 1.7 12.2 0.00 0.00 0.00 55 1006.5
20260506110118 75 250 0.0 12.2 0.00 0.00 0.00 55 1006.6
20260506110017 75 198 0.0 12.2 0.00 0.00 0.00 55 1006.6
20260506105916 74 177 0.0 12.2 0.00 0.00 0.00 55 1006.6
20260506105817 74 175 0.0 12.2 0.00 0.00 0.00 57 1006.6
20260506105716 74 176 0.0 12.2 0.00 0.00 0.00 56 1006.5
20260506105649 74 239 2.6 12.2 0.00 0.00 0.00 56 1006.6
20260506105633 74 307 3.5 8.7 0.00 0.00 0.00 56 1006.5
20260506105312 75 226 4.3 8.7 0.00 0.00 0.00 55 1006.4
20260506105212 75 22 3.5 8.7 0.00 0.00 0.00 55 1006.7
20260506105110 75 261 3.5 8.7 0.00 0.00 0.00 56 1006.7
20260506105011 75 41 7.0 8.7 0.00 0.00 0.00 55 1006.5
20260506104910 75 236 3.5 7.0 0.00 0.00 0.00 56 1006.7
20260506104808 75 293 0.9 7.0 0.00 0.00 0.00 55 1006.5
20260506104746 75 200 0.0 7.0 0.00 0.00 0.00 56 1006.6
20260506104729 74 196 0.0 12.2 0.00 0.00 0.00 55 1006.5
20260506104457 74 196 0.0 12.2 0.00 0.00 0.00 56 1006.9
20260506104448 74 166 0.0 12.2 0.00 0.00 0.00 55 1006.7
20260506104432 74 232 2.6 12.2 0.00 0.00 0.00 56 1006.7
20260506104414 74 196 0.0 12.2 0.00 0.00 0.00 56 1006.9
20260506104104 74 175 0.0 12.2 0.00 0.00 0.00 56 1006.8
20260506104004 74 233 0.0 12.2 0.00 0.00 0.00 56 1006.7
20260506103901 74 145 0.0 12.2 0.00 0.00 0.00 56 1006.5
20260506103800 74 297 0.0 12.2 0.00 0.00 0.00 55 1006.5
20260506103700 74 225 1.7 12.2 0.00 0.00 0.00 55 1006.5
20260506103604 74 74 0.0 12.2 0.00 0.00 0.00 56 1006.8
20260506103548 73 171 0.0 12.2 0.00 0.00 0.00 57 1006.6
20260506103531 74 199 0.9 13.9 0.00 0.00 0.00 56 1006.6
20260506103516 74 226 8.7 13.9 0.00 0.00 0.00 55 1006.8
20260506103454 74 253 0.0 13.9 0.00 0.00 0.00 56 1006.6
20260506103436 74 230 3.5 13.9 0.00 0.00 0.00 56 1006.7
20260506103201 74 191 0.9 13.9 0.00 0.00 0.00 56 1006.7
20260506103145 74 191 0.0 13.9 0.00 0.00 0.00 56 1006.6
20260506103122 74 186 0.0 13.9 0.00 0.00 0.00 55 1006.7
20260506102625 75 275 2.6 9.6 0.00 0.00 0.00 55 1006.7
20260506102349 75 161 0.9 9.6 0.00 0.00 0.00 55 1006.9
20260506102106 74 48 0.0 9.6 0.00 0.00 0.00 56 1006.5
20260506102049 74 287 3.5 9.6 0.00 0.00 0.00 56 1006.8
20260506101730 75 334 0.9 11.3 0.00 0.00 0.00 55 1006.5
20260506101637 75 175 1.7 11.3 0.00 0.00 0.00 55 1006.5
20260506101629 75 190 3.5 11.3 0.00 0.00 0.00 55 1006.6
20260506101529 75 211 0.9 11.3 0.00 0.00 0.00 55 1006.7
20260506101428 74 154 0.9 11.3 0.00 0.00 0.00 55 1006.7
20260506101329 74 202 0.0 11.3 0.00 0.00 0.00 57 1006.7
20260506101224 74 227 0.9 11.3 0.00 0.00 0.00 55 1007.0
20260506101135 74 180 0.0 11.3 0.00 0.00 0.00 56 1007.0
20260506101127 74 180 0.0 11.3 0.00 0.00 0.00 57 1006.6
20260506101022 75 212 0.0 11.3 0.00 0.00 0.00 56 1006.8
20260506100923 75 248 7.8 11.3 0.00 0.00 0.00 55 1006.7
20260506100824 75 187 0.0 11.3 0.00 0.00 0.00 56 1006.7
20260506100752 75 203 0.9 11.3 0.00 0.00 0.00 56 1006.7
20260506100735 74 211 0.9 13.9 0.00 0.00 0.00 56 1006.7
20260506100728 74 211 0.0 13.9 0.00 0.00 0.00 56 1006.7
20260506100713 74 180 0.0 13.9 0.00 0.00 0.00 56 1006.7
20260506100436 73 176 0.0 13.9 0.00 0.00 0.00 57 1006.8
20260506100421 73 173 0.9 13.9 0.00 0.00 0.00 57 1006.8
20260506100405 73 91 3.5 13.9 0.00 0.00 0.00 57 1006.7
20260506100357 73 280 5.2 13.9 0.00 0.00 0.00 57 1006.7
20260506100120 73 181 0.0 13.9 0.00 0.00 0.00 58 1006.6
20260506100105 73 225 1.7 13.9 0.00 0.00 0.00 59 1006.5
20260506095827 73 181 0.0 9.6 0.00 0.00 0.00 58 1006.6
20260506095517 73 137 0.0 9.6 0.00 0.00 0.00 58 1006.4
20260506095416 72 247 4.3 9.6 0.00 0.00 0.00 58 1006.7
20260506095317 72 122 0.0 9.6 0.00 0.00 0.00 58 1006.5
20260506095305 72 232 1.7 9.6 0.00 0.00 0.00 58 1006.6
20260506095246 72 143 1.7 9.6 0.00 0.00 0.00 58 1006.6
20260506095237 72 293 2.6 9.6 0.00 0.00 0.00 58 1006.6
20260506094913 73 311 3.5 9.6 0.00 0.00 0.00 57 1006.6
20260506094812 73 211 0.0 8.7 0.00 0.00 0.00 57 1006.8
20260506094709 73 187 0.0 8.7 0.00 0.00 0.00 57 1006.4
20260506094624 73 180 0.0 8.7 0.00 0.00 0.00 58 1006.7
20260506094600 73 186 0.0 12.2 0.00 0.00 0.00 58 1006.7
20260506094500 73 192 0.0 12.2 0.00 0.00 0.00 57 1006.7
20260506094359 73 83 0.9 12.2 0.00 0.00 0.00 58 1006.6
20260506094254 73 169 3.5 12.2 0.00 0.00 0.00 57 1006.8
20260506094152 73 150 0.0 12.2 0.00 0.00 0.00 57 1006.5
20260506094112 73 82 0.0 12.2 0.00 0.00 0.00 57 1006.6
20260506094053 73 190 0.9 12.2 0.00 0.00 0.00 57 1006.6
20260506093952 73 50 0.0 12.2 0.00 0.00 0.00 56 1006.7
20260506093853 74 208 0.9 12.2 0.00 0.00 0.00 56 1006.7
20260506093829 74 194 0.0 12.2 0.00 0.00 0.00 57 1006.7
20260506093815 74 224 0.9 12.2 0.00 0.00 0.00 56 1006.6
20260506093801 74 62 4.3 12.2 0.00 0.00 0.00 56 1006.6
20260506093444 75 114 0.9 8.7 0.00 0.00 0.00 56 1006.6
20260506093341 75 199 0.0 8.7 0.00 0.00 0.00 55 1006.7
20260506093241 75 226 0.9 8.7 0.00 0.00 0.00 56 1006.6
20260506093226 75 142 0.9 8.7 0.00 0.00 0.00 56 1006.7
20260506093210 75 206 0.9 8.7 0.00 0.00 0.00 56 1006.6
20260506093202 75 175 0.0 8.7 0.00 0.00 0.00 55 1006.6
20260506092834 75 243 0.0 12.2 0.00 0.00 0.00 55 1006.3
20260506092734 75 183 0.0 12.2 0.00 0.00 0.00 55 1006.4
20260506092634 75 183 0.0 12.2 0.00 0.00 0.00 55 1006.3
20260506092554 75 74 0.0 12.2 0.00 0.00 0.00 56 1006.4
20260506092534 74 177 0.9 12.2 0.00 0.00 0.00 56 1006.4
20260506092434 74 179 0.0 12.2 0.00 0.00 0.00 56 1006.6
20260506092408 74 80 0.0 12.2 0.00 0.00 0.00 55 1006.0
20260506092353 74 260 1.7 12.2 0.00 0.00 0.00 56 1006.4
20260506092051 73 166 0.9 12.2 0.00 0.00 0.00 57 1006.4
20260506092030 73 237 3.5 12.2 0.00 0.00 0.00 57 1006.3
20260506091929 73 140 0.0 12.2 0.00 0.00 0.00 58 1006.5
20260506091830 73 191 6.1 12.2 0.00 0.00 0.00 58 1006.6
20260506091728 73 169 0.0 12.2 0.00 0.00 0.00 57 1006.5
20260506091628 73 220 1.7 12.2 0.00 0.00 0.00 57 1006.6
20260506091548 73 171 0.9 12.2 0.00 0.00 0.00 58 1006.6
20260506091529 73 243 5.2 12.2 0.00 0.00 0.00 58 1006.4
20260506091428 73 196 0.0 9.6 0.00 0.00 0.00 59 1006.2
20260506091329 74 203 4.3 9.6 0.00 0.00 0.00 57 1006.4
20260506091228 74 192 0.0 9.6 0.00 0.00 0.00 57 1006.7
20260506091207 74 230 0.9 7.8 0.00 0.00 0.00 57 1006.2
20260506091150 74 217 0.0 7.8 0.00 0.00 0.00 57 1006.2
20260506091143 74 200 0.0 9.6 0.00 0.00 0.00 57 1006.2
20260506090816 74 188 0.0 11.3 0.00 0.00 0.00 57 1006.3
20260506090712 74 214 5.2 11.3 0.00 0.00 0.00 57 1006.3
20260506090611 74 199 1.7 11.3 0.00 0.00 0.00 57 1006.4
20260506090547 74 276 0.0 11.3 0.00 0.00 0.00 58 1006.4
20260506090511 74 212 0.0 11.3 0.00 0.00 0.00 57 1006.4
20260506090410 73 119 0.0 11.3 0.00 0.00 0.00 58 1006.5
20260506090300 72 202 0.0 11.3 0.00 0.00 0.00 60 1006.3
20260506090213 72 199 0.0 11.3 0.00 0.00 0.00 60 1006.3
20260506090157 72 243 1.7 11.3 0.00 0.00 0.00 59 1006.5
20260506090144 72 163 5.2 11.3 0.00 0.00 0.00 59 1006.5
20260506090120 71 179 0.0 11.3 0.00 0.00 0.00 60 1006.5
20260506085759 71 235 1.7 11.3 0.00 0.00 0.00 61 1006.5
20260506085655 71 267 5.2 11.3 0.00 0.00 0.00 60 1006.3
20260506085554 72 244 6.1 11.3 0.00 0.00 0.00 60 1006.4
20260506085538 72 232 3.5 11.3 0.00 0.00 0.00 60 1006.4
20260506085452 72 86 0.9 11.3 0.00 0.00 0.00 60 1006.4
20260506085353 72 282 5.2 7.8 0.00 0.00 0.00 58 1006.6
20260506085253 71 188 1.7 6.1 0.00 0.00 0.00 61 1006.3
20260506085153 71 198 0.9 6.1 0.00 0.00 0.00 60 1006.4
20260506085041 72 271 3.5 6.1 0.00 0.00 0.00 60 1006.3
20260506084446 71 225 2.6 13.9 0.00 0.00 0.00 62 1006.3
20260506084346 71 184 2.6 13.9 0.00 0.00 0.00 62 1006.4
20260506084246 71 215 1.7 13.9 0.00 0.00 0.00 61 1006.0
20260506084144 70 232 4.3 16.5 0.00 0.00 0.00 61 1006.4
20260506084128 70 223 3.5 16.5 0.00 0.00 0.00 61 1006.4
20260506084044 70 227 6.1 16.5 0.00 0.00 0.00 61 1006.4
20260506083945 70 195 3.5 16.5 0.00 0.00 0.00 63 1006.3
20260506083840 70 211 5.2 16.5 0.00 0.00 0.00 62 1006.4
20260506083739 71 238 12.2 16.5 0.00 0.00 0.00 61 1005.9
20260506083641 71 241 4.3 16.5 0.00 0.00 0.00 60 1006.2
20260506083624 71 203 2.6 16.5 0.00 0.00 0.00 60 1006.2
20260506083540 71 199 0.0 16.5 0.00 0.00 0.00 60 1006.3
20260506083505 73 158 0.9 7.0 0.00 0.00 0.00 58 1005.9
20260506083456 71 198 0.9 16.5 0.00 0.00 0.00 60 1006.0
20260506083440 72 148 0.9 16.5 0.00 0.00 0.00 61 1005.9
20260506083425 72 229 7.0 16.5 0.00 0.00 0.00 59 1005.9
20260506083153 73 243 3.5 15.6 0.00 0.00 0.00 59 1005.9
20260506083142 74 191 2.6 15.6 0.00 0.00 0.00 58 1005.9
20260506083127 74 258 1.7 7.0 0.00 0.00 0.00 57 1005.9
20260506083110 74 203 0.0 7.0 0.00 0.00 0.00 57 1006.0
20260506082833 73 205 2.6 7.0 0.00 0.00 0.00 58 1005.9
20260506082534 73 190 1.7 7.0 0.00 0.00 0.00 59 1006.0
20260506082450 74 196 0.0 7.0 0.00 0.00 0.00 58 1006.0
20260506082441 73 234 3.5 7.0 0.00 0.00 0.00 58 1006.2
20260506082426 74 189 0.0 7.0 0.00 0.00 0.00 58 1006.0
20260506082410 74 199 1.7 7.0 0.00 0.00 0.00 58 1006.0
20260506082138 74 171 0.0 7.0 0.00 0.00 0.00 58 1006.2
20260506082128 74 188 0.0 7.0 0.00 0.00 0.00 58 1006.3
20260506082111 74 218 0.0 7.0 0.00 0.00 0.00 58 1006.4
20260506082056 74 132 0.0 7.0 0.00 0.00 0.00 58 1006.4
20260506081821 74 196 0.0 7.0 0.00 0.00 0.00 58 1006.0
20260506081515 73 183 0.0 7.0 0.00 0.00 0.00 59 1006.2
20260506081415 73 196 0.0 7.0 0.00 0.00 0.00 59 1006.3
20260506081310 73 234 0.0 7.8 0.00 0.00 0.00 60 1006.3
20260506081251 73 190 0.9 7.8 0.00 0.00 0.00 60 1006.3
20260506081229 73 216 1.7 7.8 0.00 0.00 0.00 60 1006.2
20260506080908 72 170 0.0 12.2 0.00 0.00 0.00 60 1006.2
20260506080857 70 184 0.0 12.2 0.00 0.00 0.00 62 1006.0
20260506080848 72 200 0.9 12.2 0.00 0.00 0.00 59 1006.2
20260506080832 71 180 0.0 12.2 0.00 0.00 0.00 61 1006.2
20260506080814 70 184 0.0 12.2 0.00 0.00 0.00 62 1006.0
20260506080504 70 210 3.5 12.2 0.00 0.00 0.00 63 1006.4
20260506080404 71 244 5.2 12.2 0.00 0.00 0.00 62 1006.0
20260506080346 71 198 0.9 12.2 0.00 0.00 0.00 60 1006.4
20260506080331 71 218 1.7 12.2 0.00 0.00 0.00 61 1006.4
20260506080104 71 199 1.7 12.2 0.00 0.00 0.00 61 1006.3
20260506073528 71 169 3.5 7.8 0.00 0.00 0.00 60 1006.2
20260506073427 70 215 0.0 7.8 0.00 0.00 0.00 62 1006.0
20260506073327 69 175 0.0 8.7 0.00 0.00 0.00 62 1006.2
20260506073228 69 203 1.7 8.7 0.00 0.00 0.00 62 1006.2
20260506073128 70 278 3.5 8.7 0.00 0.00 0.00 63 1006.0
20260506073027 70 196 0.0 8.7 0.00 0.00 0.00 62 1006.2
20260506072927 70 152 0.0 8.7 0.00 0.00 0.00 63 1006.2
20260506072827 70 88 0.0 9.6 0.00 0.00 0.00 61 1006.2
20260506072810 70 157 0.0 11.3 0.00 0.00 0.00 62 1006.2
20260506072755 70 205 0.0 11.3 0.00 0.00 0.00 61 1006.0
20260506072528 71 251 5.2 11.3 0.00 0.00 0.00 62 1006.0
20260506072426 71 227 0.9 11.3 0.00 0.00 0.00 60 1006.0
20260506072327 71 145 0.0 11.3 0.00 0.00 0.00 60 1006.0
20260506072227 70 182 0.0 11.3 0.00 0.00 0.00 61 1006.2
20260506072126 70 207 0.0 11.3 0.00 0.00 0.00 62 1006.2
20260506072027 70 193 0.0 11.3 0.00 0.00 0.00 62 1006.0
20260506071926 70 271 2.6 11.3 0.00 0.00 0.00 62 1006.0
20260506071828 71 226 2.6 6.1 0.00 0.00 0.00 61 1006.0
20260506071726 71 177 0.0 8.7 0.00 0.00 0.00 62 1005.9
20260506071626 71 222 0.9 8.7 0.00 0.00 0.00 61 1005.9
20260506071515 71 185 0.9 8.7 0.00 0.00 0.00 61 1006.3
20260506071431 70 177 0.0 9.6 0.00 0.00 0.00 61 1006.2
20260506071416 70 218 0.9 9.6 0.00 0.00 0.00 62 1006.2
20260506071058 69 184 0.0 9.6 0.00 0.00 0.00 63 1006.0
20260506071004 69 196 0.0 9.6 0.00 0.00 0.00 64 1006.0
20260506070956 68 203 0.0 9.6 0.00 0.00 0.00 64 1006.0
20260506070856 68 138 0.0 9.6 0.00 0.00 0.00 64 1006.0
20260506070821 69 192 0.0 9.6 0.00 0.00 0.00 64 1006.0
20260506070806 69 211 5.2 9.6 0.00 0.00 0.00 63 1005.9
20260506070455 70 144 7.0 9.6 0.00 0.00 0.00 61 1005.9
20260506070445 70 231 2.6 7.8 0.00 0.00 0.00 61 1005.9
20260506070337 69 184 0.0 6.1 0.00 0.00 0.00 62 1006.2
20260506070236 69 177 0.0 6.1 0.00 0.00 0.00 63 1005.9
20260506070133 69 190 3.5 6.1 0.00 0.00 0.00 63 1006.2
20260506062510 66 174 1.7 13.9 0.00 0.00 0.00 66 1005.8
20260506062222 66 200 3.5 13.9 0.00 0.00 0.00 66 1005.7
20260506062207 66 20 4.3 13.9 0.00 0.00 0.00 66 1005.8
20260506061920 66 232 0.9 13.9 0.00 0.00 0.00 66 1005.7
20260506061845 66 243 0.9 13.9 0.00 0.00 0.00 65 1005.7
20260506061746 66 179 1.7 11.3 0.00 0.00 0.00 65 1006.0
20260506061645 66 268 3.5 11.3 0.00 0.00 0.00 66 1005.9
20260506061545 66 210 1.7 11.3 0.00 0.00 0.00 66 1005.9
20260506061520 66 165 0.9 11.3 0.00 0.00 0.00 65 1005.7
20260506061507 66 233 3.5 11.3 0.00 0.00 0.00 66 1005.7
20260506061456 66 125 1.7 11.3 0.00 0.00 0.00 66 1005.7
20260506061441 66 216 3.5 11.3 0.00 0.00 0.00 66 1005.8
20260506061206 66 98 0.0 7.8 0.00 0.00 0.00 65 1005.6
20260506060926 66 163 0.0 7.8 0.00 0.00 0.00 65 1005.9
20260506060916 66 207 4.3 9.6 0.00 0.00 0.00 65 1005.9
20260506060901 66 216 4.3 9.6 0.00 0.00 0.00 66 1005.8
20260506060540 66 271 4.3 9.6 0.00 0.00 0.00 65 1005.9
20260506060439 66 198 0.0 9.6 0.00 0.00 0.00 65 1005.8
20260506060411 66 204 1.7 9.6 0.00 0.00 0.00 65 1005.6
20260506060339 66 229 1.7 11.3 0.00 0.00 0.00 65 1005.6
20260506060238 66 246 5.2 13.0 0.00 0.00 0.00 65 1005.6
20260506060138 65 141 0.9 13.0 0.00 0.00 0.00 65 1005.8
20260506051144 64 247 3.5 7.8 0.00 0.00 0.00 66 1005.6
20260506051128 64 212 1.7 7.8 0.00 0.00 0.00 66 1005.5
20260506051105 64 217 4.3 7.8 0.00 0.00 0.00 66 1005.6
20260506051049 64 113 0.9 7.8 0.00 0.00 0.00 66 1005.5
20260506051034 64 223 2.6 7.8 0.00 0.00 0.00 66 1005.4
20260506050758 64 236 5.2 7.8 0.00 0.00 0.00 65 1005.5
20260506050526 64 180 0.0 6.1 0.00 0.00 0.00 66 1005.7
20260506050514 64 203 0.0 6.1 0.00 0.00 0.00 67 1005.3
20260506044823 63 205 1.7 5.2 0.00 0.00 0.00 68 1005.5
20260506044815 63 233 3.5 5.2 0.00 0.00 0.00 68 1005.5
20260506044714 63 225 1.7 5.2 0.00 0.00 0.00 67 1005.4
20260506044614 63 194 1.7 5.2 0.00 0.00 0.00 67 1005.5
20260506044516 63 192 0.0 2.6 0.00 0.00 0.00 67 1005.7
20260506044459 62 199 0.0 2.6 0.00 0.00 0.00 67 1005.6
20260506044443 62 194 0.0 2.6 0.00 0.00 0.00 68 1005.3
20260506044436 62 193 0.0 2.6 0.00 0.00 0.00 68 1005.3
20260506044115 62 204 0.9 2.6 0.00 0.00 0.00 69 1005.6
20260506044015 62 211 0.0 2.6 0.00 0.00 0.00 68 1005.4
20260506043914 61 205 0.0 2.6 0.00 0.00 0.00 68 1005.4
20260506043814 61 213 0.9 2.6 0.00 0.00 0.00 69 1005.5
20260506043711 61 220 1.7 2.6 0.00 0.00 0.00 68 1005.5
20260506043611 61 211 0.0 2.6 0.00 0.00 0.00 68 1005.4
20260506043509 61 209 0.9 2.6 0.00 0.00 0.00 69 1005.5
20260506043410 61 229 2.6 2.6 0.00 0.00 0.00 68 1005.6
20260506043318 61 198 0.0 2.6 0.00 0.00 0.00 69 1005.5
20260506043309 61 201 0.0 2.6 0.00 0.00 0.00 69 1005.5
20260506043208 61 213 0.9 2.6 0.00 0.00 0.00 68 1005.3
20260506043108 61 208 0.0 2.6 0.00 0.00 0.00 68 1005.4
20260506043008 62 204 0.0 0.9 0.00 0.00 0.00 68 1005.4
20260506042909 62 206 0.0 0.9 0.00 0.00 0.00 67 1005.5
20260506042808 61 201 0.0 0.9 0.00 0.00 0.00 68 1005.5
20260506042709 61 193 0.0 0.0 0.00 0.00 0.00 69 1005.4
20260506042608 61 193 0.0 0.0 0.00 0.00 0.00 69 1005.5
20260506042503 60 184 0.0 0.0 0.00 0.00 0.00 70 1005.2
20260506042440 60 193 0.0 0.0 0.00 0.00 0.00 70 1005.3
20260506042424 60 194 0.0 0.0 0.00 0.00 0.00 70 1005.6
20260506042416 60 195 0.0 0.0 0.00 0.00 0.00 70 1005.6
20260506042052 60 192 0.0 0.0 0.00 0.00 0.00 70 1005.5
20260506041952 60 195 0.0 0.0 0.00 0.00 0.00 70 1005.3
20260506041851 60 193 0.0 0.0 0.00 0.00 0.00 70 1005.2
20260506041810 60 190 0.0 0.0 0.00 0.00 0.00 70 1005.5
20260506041748 60 190 0.0 0.0 0.00 0.00 0.00 70 1005.5
20260506041646 60 194 0.0 0.0 0.00 0.00 0.00 70 1005.4
20260506041607 60 196 0.0 0.0 0.00 0.00 0.00 70 1005.5
20260506041553 60 196 0.0 0.0 0.00 0.00 0.00 70 1005.5
20260506041307 60 196 0.0 0.0 0.00 0.00 0.00 70 1005.2
20260506041233 60 198 0.0 0.0 0.00 0.00 0.00 71 1005.5
20260506041133 59 214 0.0 0.0 0.00 0.00 0.00 72 1005.3
20260506041033 58 196 0.0 0.0 0.00 0.00 0.00 72 1005.5
20260506040933 58 196 0.0 0.0 0.00 0.00 0.00 73 1005.4
20260506040805 58 199 0.0 0.0 0.00 0.00 0.00 73 1005.1
20260506040732 58 199 0.0 0.0 0.00 0.00 0.00 73 1005.3
20260506040628 57 200 0.0 0.0 0.00 0.00 0.00 73 1005.3
20260506040556 57 192 0.0 0.0 0.00 0.00 0.00 74 1005.5
20260506040549 57 202 0.0 0.0 0.00 0.00 0.00 74 1005.3
20260506040533 57 203 0.0 0.0 0.00 0.00 0.00 74 1005.5
20260506040517 57 198 0.0 0.0 0.00 0.00 0.00 74 1005.5
20260506040228 57 188 0.0 0.0 0.00 0.00 0.00 74 1005.3
20260506040202 57 187 0.0 0.0 0.00 0.00 0.00 74 1005.4
20260506040146 57 188 0.0 0.0 0.00 0.00 0.00 74 1005.2
20260506035826 57 185 0.0 0.0 0.00 0.00 0.00 74 1005.2
20260506035758 57 185 0.0 0.0 0.00 0.00 0.00 74 1005.2
20260506035727 57 184 0.0 0.0 0.00 0.00 0.00 74 1005.2
20260506035622 57 184 0.0 0.0 0.00 0.00 0.00 74 1005.2
20260506035521 57 181 0.0 0.0 0.00 0.00 0.00 74 1005.4
20260506035422 57 180 0.0 0.0 0.00 0.00 0.00 74 1005.5
20260506035406 57 182 0.0 0.0 0.00 0.00 0.00 74 1005.2
20260506035353 57 178 0.0 0.9 0.00 0.00 0.00 74 1005.2
20260506035341 57 180 0.0 0.9 0.00 0.00 0.00 74 1005.4
20260506035020 57 195 0.0 1.7 0.00 0.00 0.00 74 1005.3
20260506034916 57 194 0.0 1.7 0.00 0.00 0.00 74 1005.4
20260506034857 57 194 0.0 1.7 0.00 0.00 0.00 74 1005.4
20260506034844 57 196 0.0 1.7 0.00 0.00 0.00 74 1005.4
20260506034835 57 192 0.0 1.7 0.00 0.00 0.00 74 1005.3
20260506034551 57 191 0.0 3.5 0.00 0.00 0.00 74 1005.5
20260506034535 57 193 0.0 3.5 0.00 0.00 0.00 73 1005.2
20260506034520 57 198 0.0 3.5 0.00 0.00 0.00 73 1005.4
20260506034506 57 199 0.0 3.5 0.00 0.00 0.00 73 1005.4
20260506034455 57 201 0.0 3.5 0.00 0.00 0.00 73 1005.3
20260506033915 57 197 0.9 3.5 0.00 0.00 0.00 73 1005.3
20260506033845 57 215 1.7 3.5 0.00 0.00 0.00 73 1005.1
20260506033831 57 198 0.9 3.5 0.00 0.00 0.00 73 1005.1
20260506033822 57 211 0.9 3.5 0.00 0.00 0.00 73 1005.3
20260506033807 57 226 1.7 3.5 0.00 0.00 0.00 73 1005.3
20260506033530 57 212 1.7 2.6 0.00 0.00 0.00 73 1005.2
20260506033243 57 200 0.9 2.6 0.00 0.00 0.00 73 1005.2
20260506033211 57 211 1.7 2.6 0.00 0.00 0.00 73 1005.3
20260506033110 57 228 1.7 2.6 0.00 0.00 0.00 73 1005.2
20260506033010 57 228 1.7 2.6 0.00 0.00 0.00 73 1005.1
20260506032910 57 202 1.7 2.6 0.00 0.00 0.00 73 1005.3
20260506032809 57 220 1.7 2.6 0.00 0.00 0.00 73 1005.3
20260506032742 57 215 0.9 2.6 0.00 0.00 0.00 73 1005.3
20260506032709 57 196 0.9 2.6 0.00 0.00 0.00 73 1005.1
20260506032608 57 219 0.9 2.6 0.00 0.00 0.00 73 1005.2
20260506032511 57 210 0.9 2.6 0.00 0.00 0.00 73 1005.2
20260506032410 57 226 1.7 2.6 0.00 0.00 0.00 73 1005.3
20260506032354 57 212 2.6 2.6 0.00 0.00 0.00 73 1005.4
20260506032340 57 218 1.7 2.6 0.00 0.00 0.00 73 1005.4
20260506032329 57 212 0.0 2.6 0.00 0.00 0.00 73 1005.3
20260506032041 57 219 2.6 2.6 0.00 0.00 0.00 72 1005.1
20260506032024 57 234 1.7 2.6 0.00 0.00 0.00 72 1005.1
20260506031736 57 225 1.7 2.6 0.00 0.00 0.00 72 1005.2
20260506031706 57 207 0.9 2.6 0.00 0.00 0.00 72 1005.2
20260506031606 57 211 0.0 2.6 0.00 0.00 0.00 72 1005.4
20260506031531 57 228 2.6 2.6 0.00 0.00 0.00 72 1005.5
20260506031524 57 204 0.0 2.6 0.00 0.00 0.00 72 1005.3
20260506031508 57 209 0.9 2.6 0.00 0.00 0.00 72 1005.2
20260506031453 57 214 0.9 2.6 0.00 0.00 0.00 72 1005.5
20260506031203 57 212 0.9 2.6 0.00 0.00 0.00 72 1005.3
20260506031103 57 212 0.9 2.6 0.00 0.00 0.00 72 1005.2
20260506031004 57 211 0.9 2.6 0.00 0.00 0.00 72 1005.2
20260506030903 57 208 0.0 2.6 0.00 0.00 0.00 72 1005.2
20260506030802 57 214 0.9 2.6 0.00 0.00 0.00 72 1005.3
20260506030734 57 212 1.7 2.6 0.00 0.00 0.00 72 1005.3
20260506030702 58 199 0.0 2.6 0.00 0.00 0.00 72 1005.3
20260506030632 58 213 0.9 2.6 0.00 0.00 0.00 71 1005.1
20260506030617 58 206 0.0 3.5 0.00 0.00 0.00 71 1005.3
20260506030601 58 212 0.0 3.5 0.00 0.00 0.00 71 1005.2
20260506030328 58 198 0.0 3.5 0.00 0.00 0.00 71 1005.3
20260506030317 58 196 0.0 6.1 0.00 0.00 0.00 71 1005.3
20260506025958 58 202 0.0 6.1 0.00 0.00 0.00 71 1005.3
20260506025857 58 207 0.9 6.1 0.00 0.00 0.00 71 1005.4
20260506025803 58 210 0.9 6.1 0.00 0.00 0.00 70 1005.4
20260506025750 58 203 0.0 6.1 0.00 0.00 0.00 70 1005.3
20260506025741 58 214 0.0 6.1 0.00 0.00 0.00 70 1005.3
20260506025717 58 215 1.7 6.1 0.00 0.00 0.00 70 1005.2
20260506025406 59 216 0.9 3.5 0.00 0.00 0.00 68 1005.3
20260506025400 58 186 1.7 6.1 0.00 0.00 0.00 70 1005.3
20260506025349 59 211 0.0 1.7 0.00 0.00 0.00 67 1005.3
20260506025339 58 198 1.7 6.1 0.00 0.00 0.00 70 1005.2
20260506025326 58 231 0.9 5.2 0.00 0.00 0.00 70 1005.1
20260506025315 58 222 3.5 5.2 0.00 0.00 0.00 70 1005.1
20260506025300 58 223 1.7 3.5 0.00 0.00 0.00 70 1005.2
20260506025243 58 194 0.0 3.5 0.00 0.00 0.00 70 1005.3
20260506025226 58 208 1.7 3.5 0.00 0.00 0.00 70 1005.5
20260506024953 58 213 0.0 1.7 0.00 0.00 0.00 70 1005.3
20260506024931 58 199 0.0 1.7 0.00 0.00 0.00 69 1005.3
20260506024916 58 205 0.9 2.6 0.00 0.00 0.00 69 1005.4
20260506024900 58 201 0.0 2.6 0.00 0.00 0.00 69 1005.4
20260506024407 58 203 0.0 3.5 0.00 0.00 0.00 69 1005.6
20260506024343 58 199 0.0 3.5 0.00 0.00 0.00 69 1005.6
20260506024328 58 203 0.0 3.5 0.00 0.00 0.00 69 1005.4
20260506024311 59 198 0.0 3.5 0.00 0.00 0.00 69 1005.2
20260506024035 59 186 0.0 3.5 0.00 0.00 0.00 68 1005.3
20260506023809 59 217 0.0 3.5 0.00 0.00 0.00 68 1005.3
20260506023753 59 223 1.7 3.5 0.00 0.00 0.00 68 1005.3
20260506023737 59 220 0.0 3.5 0.00 0.00 0.00 68 1005.3
20260506023722 59 229 1.7 3.5 0.00 0.00 0.00 68 1005.5
20260506023706 59 212 0.0 2.6 0.00 0.00 0.00 68 1005.2
20260506023653 59 206 0.9 2.6 0.00 0.00 0.00 68 1005.3
20260506023200 59 216 1.7 2.6 0.00 0.00 0.00 67 1005.4
20260506022924 59 206 0.9 1.7 0.00 0.00 0.00 67 1005.3
20260506022634 59 213 1.7 1.7 0.00 0.00 0.00 68 1005.3
20260506022608 59 203 0.0 1.7 0.00 0.00 0.00 68 1005.3
20260506022553 59 217 0.0 2.6 0.00 0.00 0.00 67 1005.2
20260506022234 59 204 0.0 2.6 0.00 0.00 0.00 67 1005.4
20260506022207 59 239 0.0 2.6 0.00 0.00 0.00 67 1005.4
20260506022133 59 202 0.0 2.6 0.00 0.00 0.00 67 1005.2
20260506022052 59 212 0.0 2.6 0.00 0.00 0.00 67 1005.4
20260506022038 59 204 0.0 2.6 0.00 0.00 0.00 67 1005.4
20260506022024 59 200 0.0 2.6 0.00 0.00 0.00 67 1005.5
20260506021753 59 196 0.0 2.6 0.00 0.00 0.00 67 1005.2
20260506021743 59 204 0.9 5.2 0.00 0.00 0.00 67 1005.4
20260506021424 59 199 0.0 5.2 0.00 0.00 0.00 67 1005.3
20260506021326 59 213 0.9 5.2 0.00 0.00 0.00 67 1005.4
20260506021310 59 187 0.0 5.2 0.00 0.00 0.00 67 1005.3
20260506021257 59 185 0.0 5.2 0.00 0.00 0.00 67 1005.3
20260506021248 59 176 0.0 5.2 0.00 0.00 0.00 67 1005.3
20260506021001 59 222 3.5 5.2 0.00 0.00 0.00 67 1005.2
20260506020951 59 204 0.0 5.2 0.00 0.00 0.00 67 1005.3
20260506020935 59 205 0.0 5.2 0.00 0.00 0.00 67 1005.3
20260506020920 59 209 0.0 5.2 0.00 0.00 0.00 67 1005.2
20260506020652 59 212 1.7 7.0 0.00 0.00 0.00 66 1005.4
20260506020636 59 219 0.9 7.0 0.00 0.00 0.00 66 1005.1
20260506020316 59 220 1.7 7.0 0.00 0.00 0.00 66 1005.4
20260506020216 59 196 1.7 7.0 0.00 0.00 0.00 66 1005.3
20260506020203 59 226 0.9 7.0 0.00 0.00 0.00 66 1005.3
20260506020152 59 234 4.3 7.0 0.00 0.00 0.00 66 1005.3
20260506020135 59 187 0.9 7.0 0.00 0.00 0.00 66 1005.2
20260506015807 60 225 1.7 7.0 0.00 0.00 0.00 66 1005.2
20260506015731 59 274 2.6 6.1 0.00 0.00 0.00 66 1005.1
20260506015723 59 214 0.9 7.0 0.00 0.00 0.00 66 1005.4
20260506015711 59 225 4.3 7.0 0.00 0.00 0.00 66 1005.4
20260506015701 59 175 0.0 7.0 0.00 0.00 0.00 66 1005.4
20260506015647 59 227 3.5 7.0 0.00 0.00 0.00 66 1005.5
20260506015422 59 230 3.5 6.1 0.00 0.00 0.00 66 1005.3
20260506015407 59 223 0.9 6.1 0.00 0.00 0.00 66 1005.3
20260506015347 59 274 2.6 6.1 0.00 0.00 0.00 66 1005.1
20260506015027 59 223 2.6 6.1 0.00 0.00 0.00 66 1005.4
20260506014958 59 205 1.7 6.1 0.00 0.00 0.00 66 1005.2
20260506014942 59 229 2.6 6.1 0.00 0.00 0.00 66 1005.4
20260506014625 59 237 4.3 6.1 0.00 0.00 0.00 66 1005.3
20260506014604 59 237 4.3 6.1 0.00 0.00 0.00 66 1005.3
20260506014505 59 232 0.9 3.5 0.00 0.00 0.00 66 1005.2
20260506014405 59 235 1.7 3.5 0.00 0.00 0.00 66 1005.2
20260506014256 59 208 0.0 3.5 0.00 0.00 0.00 66 1005.4
20260506014229 59 211 0.0 3.5 0.00 0.00 0.00 66 1005.3
20260506014217 59 207 0.0 3.5 0.00 0.00 0.00 66 1005.3
20260506014205 59 237 2.6 3.5 0.00 0.00 0.00 66 1005.3
20260506013915 59 192 0.0 0.0 0.00 0.00 0.00 66 1005.2
20260506013907 58 203 0.0 0.9 0.00 0.00 0.00 66 1005.3
20260506013852 59 192 0.0 0.0 0.00 0.00 0.00 66 1005.3
20260506013834 59 192 0.0 0.0 0.00 0.00 0.00 66 1005.2
20260506013535 59 196 0.0 0.0 0.00 0.00 0.00 66 1005.2
20260506013434 59 197 0.0 0.0 0.00 0.00 0.00 65 1005.3
20260506013333 59 197 0.0 0.0 0.00 0.00 0.00 65 1005.2
20260506013233 59 197 0.0 0.0 0.00 0.00 0.00 65 1005.3
20260506013212 59 199 0.0 0.0 0.00 0.00 0.00 65 1005.2
20260506013200 59 200 0.0 0.0 0.00 0.00 0.00 65 1005.2
20260506013146 59 194 0.0 0.0 0.00 0.00 0.00 65 1005.1
20260506012839 60 192 0.0 0.0 0.00 0.00 0.00 63 1005.0
20260506012833 59 206 0.0 0.0 0.00 0.00 0.00 65 1005.1
20260506012818 58 196 0.0 0.0 0.00 0.00 0.00 65 1005.0
20260506012803 58 194 0.0 0.0 0.00 0.00 0.00 66 1005.1
20260506012751 58 192 0.0 0.0 0.00 0.00 0.00 66 1005.1
20260506012532 58 188 0.0 0.0 0.00 0.00 0.00 67 1005.2
20260506012517 58 188 0.0 0.0 0.00 0.00 0.00 67 1005.1
20260506012501 58 188 0.0 0.0 0.00 0.00 0.00 68 1004.9
20260506012225 58 188 0.0 0.0 0.00 0.00 0.00 68 1005.2
20260506012212 58 188 0.0 0.0 0.00 0.00 0.00 67 1005.2
20260506012200 58 189 0.0 0.0 0.00 0.00 0.00 67 1005.2
20260506011936 58 188 0.0 0.0 0.00 0.00 0.00 67 1005.2
20260506011920 58 188 0.0 0.0 0.00 0.00 0.00 67 1005.1
20260506011905 59 189 0.0 0.0 0.00 0.00 0.00 67 1005.1
20260506011849 59 189 0.0 0.0 0.00 0.00 0.00 67 1005.0
20260506011837 59 190 0.0 0.0 0.00 0.00 0.00 66 1005.0
20260506011827 60 191 0.0 0.0 0.00 0.00 0.00 65 1005.3
20260506011810 60 191 0.0 0.0 0.00 0.00 0.00 64 1005.2
20260506011755 60 191 0.0 0.0 0.00 0.00 0.00 63 1005.1
20260506011048 60 192 0.0 0.0 0.00 0.00 0.00 63 1005.0
20260506011034 60 194 0.0 0.0 0.00 0.00 0.00 63 1005.3
20260506011018 60 194 0.0 0.0 0.00 0.00 0.00 62 1005.1
20260506011003 60 181 0.0 0.0 0.00 0.00 0.00 62 1004.9
20260506010941 60 180 0.0 0.0 0.00 0.00 0.00 62 1005.2
20260506010924 60 181 0.0 0.0 0.00 0.00 0.00 62 1005.0
20260506010649 61 181 0.0 1.7 0.00 0.00 0.00 62 1005.0
20260506010407 61 187 0.0 1.7 0.00 0.00 0.00 61 1005.2
20260506005920 62 192 0.0 2.6 0.00 0.00 0.00 60 1005.2
20260506005904 62 193 0.0 2.6 0.00 0.00 0.00 59 1005.3
20260506005847 62 198 0.0 2.6 0.00 0.00 0.00 59 1004.9
20260506005830 62 198 0.0 2.6 0.00 0.00 0.00 59 1005.2
20260506005605 62 200 0.0 2.6 0.00 0.00 0.00 59 1005.2
20260506005321 62 210 0.9 2.6 0.00 0.00 0.00 59 1005.3
20260506005306 62 204 0.0 2.6 0.00 0.00 0.00 59 1005.2
20260506005037 62 218 0.9 0.0 0.00 0.00 0.00 59 1005.4
20260506004730 62 218 0.9 2.6 0.00 0.00 0.00 59 1005.4
20260506004628 62 225 1.7 2.6 0.00 0.00 0.00 59 1005.5
20260506004531 62 224 1.7 2.6 0.00 0.00 0.00 59 1005.3
20260506004522 62 213 1.7 2.6 0.00 0.00 0.00 59 1005.3
20260506004417 62 204 0.0 3.5 0.00 0.00 0.00 59 1005.4
20260506004317 62 201 0.0 3.5 0.00 0.00 0.00 59 1005.3
20260506004217 62 200 0.0 3.5 0.00 0.00 0.00 59 1005.3
20260506004117 62 210 0.0 3.5 0.00 0.00 0.00 59 1005.3
20260506004025 62 207 0.9 3.5 0.00 0.00 0.00 59 1005.2
20260506004004 62 225 0.9 3.5 0.00 0.00 0.00 59 1005.2
20260506003903 62 204 0.0 3.5 0.00 0.00 0.00 58 1005.2
20260506003803 62 206 1.7 3.5 0.00 0.00 0.00 58 1005.5
20260506003705 62 186 0.0 5.2 0.00 0.00 0.00 58 1005.4
20260506003603 62 217 0.9 5.2 0.00 0.00 0.00 58 1005.5
20260506003524 63 200 0.0 5.2 0.00 0.00 0.00 58 1005.4
20260506003517 63 225 2.6 7.0 0.00 0.00 0.00 57 1005.1
20260506003512 63 218 1.7 5.2 0.00 0.00 0.00 58 1005.4
20260506003455 63 211 0.9 5.2 0.00 0.00 0.00 58 1005.4
20260506003440 63 207 0.0 5.2 0.00 0.00 0.00 58 1005.3
20260506003214 63 223 1.7 5.2 0.00 0.00 0.00 58 1005.1
20260506003157 63 209 0.0 7.0 0.00 0.00 0.00 58 1005.5
20260506003142 63 209 1.7 7.0 0.00 0.00 0.00 58 1005.2
20260506003135 63 206 0.9 7.0 0.00 0.00 0.00 58 1005.2
20260506003119 63 199 0.9 7.0 0.00 0.00 0.00 57 1005.4
20260506003103 63 199 1.7 7.0 0.00 0.00 0.00 57 1005.1
20260506002828 63 226 2.6 7.0 0.00 0.00 0.00 57 1005.4
20260506002559 63 205 0.9 7.0 0.00 0.00 0.00 57 1005.1
20260506002140 63 236 4.3 6.1 0.00 0.00 0.00 56 1005.2
20260506002039 63 194 0.9 6.1 0.00 0.00 0.00 57 1005.4
20260506002011 63 193 0.9 3.5 0.00 0.00 0.00 57 1005.3
20260506001930 64 199 0.0 3.5 0.00 0.00 0.00 56 1005.3
20260506001849 64 210 0.0 3.5 0.00 0.00 0.00 56 1005.2
20260506001832 64 211 1.7 3.5 0.00 0.00 0.00 56 1005.1
20260506001817 64 227 1.7 3.5 0.00 0.00 0.00 56 1005.4
20260506001801 64 228 0.9 3.5 0.00 0.00 0.00 56 1005.4
20260506001748 64 194 0.0 3.5 0.00 0.00 0.00 56 1005.3
20260506001740 64 177 0.0 3.5 0.00 0.00 0.00 56 1005.4
20260506001502 64 207 0.9 6.1 0.00 0.00 0.00 56 1005.5
20260506000954 64 210 0.9 6.1 0.00 0.00 0.00 56 1005.1
20260506000922 64 224 0.0 6.1 0.00 0.00 0.00 56 1005.2
20260506000851 64 220 1.7 6.1 0.00 0.00 0.00 56 1005.3
20260506000834 64 221 0.9 6.1 0.00 0.00 0.00 56 1005.3
20260506000817 64 194 0.0 6.1 0.00 0.00 0.00 56 1005.3
20260506000802 64 194 0.0 6.1 0.00 0.00 0.00 55 1005.1
20260506000749 64 204 1.7 6.1 0.00 0.00 0.00 55 1005.1
20260506000213 64 214 3.5 5.2 0.00 0.00 0.00 55 1005.2
20260506000134 64 172 0.0 7.8 0.00 0.00 0.00 55 1005.4
20260506000117 64 205 1.7 9.6 0.00 0.00 0.00 55 1005.4
20260506000104 64 202 0.0 9.6 0.00 0.00 0.00 55 1005.4
20260506000045 64 226 0.9 9.6 0.00 0.00 0.00 55 1005.4
20260506000029 64 211 3.5 9.6 0.00 0.00 0.00 55 1005.2
20260506000014 64 204 1.7 9.6 0.00 0.00 0.00 55 1005.4
20260505235520 64 225 1.7 9.6 0.00 0.00 0.00 55 1005.3
20260505235511 64 203 0.0 9.6 0.00 0.00 0.00 55 1005.2
20260505235455 64 204 1.7 9.6 0.00 0.00 0.00 55 1005.5
20260505235437 65 221 2.6 9.6 0.00 0.00 0.00 55 1005.4
20260505235421 65 222 1.7 7.8 0.00 0.00 0.00 55 1005.2
20260505235405 65 153 0.0 7.8 0.00 0.00 0.00 55 1005.6
20260505235352 65 213 3.5 7.8 0.00 0.00 0.00 55 1005.4
20260505234557 65 233 1.7 7.0 0.00 0.00 0.00 55 1005.4
20260505234457 65 219 0.9 7.0 0.00 0.00 0.00 55 1005.4
20260505234429 65 214 1.7 7.0 0.00 0.00 0.00 55 1005.3
20260505234359 65 215 1.7 7.0 0.00 0.00 0.00 55 1005.3
20260505234258 65 206 1.7 9.6 0.00 0.00 0.00 55 1005.3
20260505234157 65 210 3.5 9.6 0.00 0.00 0.00 54 1005.5
20260505234044 65 216 1.7 9.6 0.00 0.00 0.00 54 1005.6
20260505233945 65 235 3.5 9.6 0.00 0.00 0.00 54 1005.5
20260505233931 65 227 3.5 9.6 0.00 0.00 0.00 54 1005.4
20260505233845 65 232 3.5 9.6 0.00 0.00 0.00 54 1005.4
20260505233745 65 234 3.5 9.6 0.00 0.00 0.00 54 1005.5
20260505233645 65 235 3.5 9.6 0.00 0.00 0.00 54 1005.6
20260505233545 65 218 0.9 9.6 0.00 0.00 0.00 54 1005.6
20260505233422 65 207 5.2 9.6 0.00 0.00 0.00 54 1005.5
20260505233341 65 230 4.3 9.6 0.00 0.00 0.00 54 1005.5
20260505233241 65 237 5.2 9.6 0.00 0.00 0.00 54 1005.4
20260505233140 65 215 1.7 9.6 0.00 0.00 0.00 54 1005.5
20260505233038 65 220 7.8 9.6 0.00 0.00 0.00 54 1005.7
20260505232936 65 192 0.0 8.7 0.00 0.00 0.00 54 1005.6
20260505232920 65 188 1.7 8.7 0.00 0.00 0.00 54 1005.6
20260505232834 65 233 3.5 8.7 0.00 0.00 0.00 54 1005.5
20260505232800 65 217 7.0 14.8 0.00 0.00 0.00 54 1005.6
20260505232752 65 233 2.6 8.7 0.00 0.00 0.00 54 1005.7
20260505232736 65 208 3.5 8.7 0.00 0.00 0.00 54 1005.7
20260505232719 65 184 1.7 8.7 0.00 0.00 0.00 54 1005.7
20260505232657 65 94 1.7 8.7 0.00 0.00 0.00 54 1005.7
20260505232640 65 181 1.7 8.7 0.00 0.00 0.00 54 1005.7
20260505232623 65 200 0.9 14.8 0.00 0.00 0.00 54 1005.6
20260505232608 65 186 0.9 14.8 0.00 0.00 0.00 54 1005.7
20260505231816 65 219 0.9 14.8 0.00 0.00 0.00 55 1005.7
20260505231716 65 219 2.6 14.8 0.00 0.00 0.00 55 1005.6
20260505231615 65 229 0.0 14.8 0.00 0.00 0.00 55 1006.0
20260505231515 65 213 0.0 14.8 0.00 0.00 0.00 55 1005.7
20260505231415 65 200 1.7 14.8 0.00 0.00 0.00 54 1005.7
20260505231316 65 254 12.2 14.8 0.00 0.00 0.00 54 1005.9
20260505231241 65 220 2.6 7.8 0.00 0.00 0.00 54 1005.6
20260505231224 65 196 0.0 7.8 0.00 0.00 0.00 55 1005.5
20260505230904 66 229 5.2 12.2 0.00 0.00 0.00 54 1005.6
20260505230804 66 201 1.7 12.2 0.00 0.00 0.00 54 1005.7
20260505230704 66 196 1.7 12.2 0.00 0.00 0.00 54 1005.8
20260505230603 66 179 1.7 12.2 0.00 0.00 0.00 54 1005.8
20260505230504 66 214 0.9 12.2 0.00 0.00 0.00 54 1005.6
20260505230406 66 156 0.9 12.2 0.00 0.00 0.00 54 1005.6
20260505230336 66 199 0.9 12.2 0.00 0.00 0.00 54 1005.6
20260505230016 66 219 8.7 12.2 0.00 0.00 0.00 53 1005.6
20260505225916 66 227 1.7 12.2 0.00 0.00 0.00 54 1005.7
20260505225816 65 189 3.5 12.2 0.00 0.00 0.00 54 1005.7
20260505225717 65 200 3.5 12.2 0.00 0.00 0.00 54 1005.8
20260505225617 65 213 5.2 12.2 0.00 0.00 0.00 55 1005.7
20260505225538 65 196 2.6 7.0 0.00 0.00 0.00 56 1006.0
20260505225531 65 232 3.5 6.1 0.00 0.00 0.00 56 1005.8
20260505225525 65 213 2.6 12.2 0.00 0.00 0.00 55 1005.9
20260505225510 65 229 2.6 12.2 0.00 0.00 0.00 56 1005.8
20260505225448 66 154 0.9 12.2 0.00 0.00 0.00 55 1005.7
20260505225431 66 201 2.6 12.2 0.00 0.00 0.00 55 1005.8
20260505225154 65 148 2.6 11.3 0.00 0.00 0.00 55 1005.8
20260505224929 65 239 5.2 9.6 0.00 0.00 0.00 55 1005.5
20260505224913 65 192 2.6 9.6 0.00 0.00 0.00 56 1005.7
20260505224907 65 192 2.6 9.6 0.00 0.00 0.00 56 1005.7
20260505224850 65 204 1.7 9.6 0.00 0.00 0.00 56 1005.8
20260505224835 65 194 3.5 9.6 0.00 0.00 0.00 56 1005.7
20260505224819 65 213 4.3 7.0 0.00 0.00 0.00 56 1005.9
20260505224803 65 240 4.3 6.1 0.00 0.00 0.00 56 1005.8
20260505224536 65 208 0.0 6.1 0.00 0.00 0.00 56 1005.8
20260505224037 65 209 1.7 6.1 0.00 0.00 0.00 56 1006.2
20260505224022 65 204 0.9 6.1 0.00 0.00 0.00 56 1005.9
20260505223748 66 202 0.0 7.0 0.00 0.00 0.00 56 1006.0
20260505223742 65 194 1.7 7.0 0.00 0.00 0.00 56 1006.0
20260505223727 65 192 0.9 7.0 0.00 0.00 0.00 56 1006.0
20260505223711 65 218 3.5 7.0 0.00 0.00 0.00 56 1005.9
20260505223656 65 207 0.0 7.0 0.00 0.00 0.00 56 1005.9
20260505223640 66 240 3.5 7.0 0.00 0.00 0.00 56 1006.0
20260505223413 66 208 1.7 7.0 0.00 0.00 0.00 56 1005.8
20260505223146 66 186 0.9 7.0 0.00 0.00 0.00 55 1006.0
20260505223130 66 214 0.0 7.0 0.00 0.00 0.00 56 1006.0
20260505223115 66 190 0.0 7.0 0.00 0.00 0.00 56 1005.9
20260505222841 66 212 3.5 3.5 0.00 0.00 0.00 56 1005.9
20260505222833 66 220 1.7 3.5 0.00 0.00 0.00 56 1005.7
20260505222817 66 200 0.0 5.2 0.00 0.00 0.00 56 1005.7
20260505222554 66 206 1.7 5.2 0.00 0.00 0.00 56 1005.8
20260505222537 66 227 3.5 7.0 0.00 0.00 0.00 56 1005.8
20260505222521 66 213 1.7 7.0 0.00 0.00 0.00 56 1006.0
20260505222255 66 218 1.7 7.0 0.00 0.00 0.00 56 1005.8
20260505222236 66 243 1.7 7.0 0.00 0.00 0.00 56 1005.9
20260505222221 66 245 2.6 7.0 0.00 0.00 0.00 56 1006.0
20260505221946 66 196 0.0 7.0 0.00 0.00 0.00 56 1005.9
20260505221933 66 209 0.9 7.0 0.00 0.00 0.00 55 1005.9
20260505221616 66 229 2.6 7.0 0.00 0.00 0.00 55 1005.8
20260505221547 66 198 0.0 7.0 0.00 0.00 0.00 56 1006.2
20260505221530 66 201 0.0 7.0 0.00 0.00 0.00 55 1006.2
20260505221514 66 196 1.7 7.0 0.00 0.00 0.00 55 1005.8
20260505221501 66 232 2.6 7.8 0.00 0.00 0.00 55 1005.8
20260505221452 66 214 2.6 7.8 0.00 0.00 0.00 55 1005.8
20260505220910 66 199 0.9 7.8 0.00 0.00 0.00 55 1006.0
20260505220808 66 202 3.5 7.8 0.00 0.00 0.00 55 1005.8
20260505220741 66 199 2.6 7.8 0.00 0.00 0.00 55 1005.8
20260505220709 66 200 0.9 7.8 0.00 0.00 0.00 56 1006.0
20260505220644 66 192 3.5 7.0 0.00 0.00 0.00 56 1005.9
20260505220636 66 208 2.6 7.8 0.00 0.00 0.00 56 1005.8
20260505220620 66 225 1.7 7.8 0.00 0.00 0.00 56 1006.0
20260505220604 66 211 2.6 7.8 0.00 0.00 0.00 55 1006.2
20260505220547 66 196 0.0 7.0 0.00 0.00 0.00 56 1005.9
20260505220320 66 213 3.5 7.0 0.00 0.00 0.00 55 1006.0
20260505220033 66 187 0.9 7.0 0.00 0.00 0.00 56 1006.0
20260505220019 66 217 1.7 7.0 0.00 0.00 0.00 56 1005.9
20260505220002 66 223 1.7 7.0 0.00 0.00 0.00 56 1006.0
20260505215949 66 199 1.7 7.0 0.00 0.00 0.00 56 1006.0
20260505215940 66 203 0.9 7.0 0.00 0.00 0.00 56 1006.0
20260505215359 66 196 0.0 7.0 0.00 0.00 0.00 56 1006.2
20260505215258 66 188 0.0 7.0 0.00 0.00 0.00 56 1006.4
20260505215229 66 204 4.3 7.0 0.00 0.00 0.00 56 1006.2
20260505215158 66 214 0.0 7.0 0.00 0.00 0.00 56 1006.2
20260505215126 66 184 1.7 7.0 0.00 0.00 0.00 56 1006.2
20260505215111 66 207 5.2 7.0 0.00 0.00 0.00 56 1006.3
20260505215056 66 162 0.0 7.0 0.00 0.00 0.00 56 1006.0
20260505215039 66 189 1.7 7.0 0.00 0.00 0.00 56 1006.2
20260505215026 66 232 0.9 7.8 0.00 0.00 0.00 56 1005.9
20260505214453 67 196 0.0 7.8 0.00 0.00 0.00 56 1006.2
20260505214351 67 212 1.7 7.8 0.00 0.00 0.00 56 1006.2
20260505214251 67 178 0.0 7.8 0.00 0.00 0.00 56 1005.9
20260505214225 67 200 0.9 7.8 0.00 0.00 0.00 56 1006.2
20260505214151 67 186 0.9 7.8 0.00 0.00 0.00 56 1006.2
20260505214051 67 200 0.9 7.8 0.00 0.00 0.00 56 1006.3
20260505213951 67 204 0.9 7.8 0.00 0.00 0.00 55 1006.0
20260505213843 67 202 1.7 7.8 0.00 0.00 0.00 56 1006.2
20260505213810 67 219 2.6 7.0 0.00 0.00 0.00 55 1006.4
20260505213759 67 184 1.7 7.0 0.00 0.00 0.00 55 1006.0
20260505213747 67 222 0.9 7.0 0.00 0.00 0.00 55 1006.2
20260505213512 67 182 0.0 8.7 0.00 0.00 0.00 55 1006.4
20260505213503 67 200 0.9 8.7 0.00 0.00 0.00 55 1006.0
20260505213447 67 213 0.9 8.7 0.00 0.00 0.00 55 1006.2
20260505213431 67 184 1.7 8.7 0.00 0.00 0.00 55 1006.4
20260505213203 67 179 0.0 8.7 0.00 0.00 0.00 55 1006.2
20260505213147 67 184 1.7 8.7 0.00 0.00 0.00 55 1006.2
20260505212901 67 152 0.9 8.7 0.00 0.00 0.00 55 1006.4
20260505212852 67 205 0.9 11.3 0.00 0.00 0.00 55 1006.2
20260505212823 67 199 0.0 11.3 0.00 0.00 0.00 55 1006.2
20260505212812 67 215 2.6 11.3 0.00 0.00 0.00 55 1006.3
20260505212756 67 208 5.2 11.3 0.00 0.00 0.00 55 1006.3
20260505212254 67 215 1.7 11.3 0.00 0.00 0.00 55 1006.3
20260505212235 67 218 4.3 11.3 0.00 0.00 0.00 55 1006.5
20260505212219 67 217 1.7 11.3 0.00 0.00 0.00 55 1006.5
20260505212204 67 164 2.6 8.7 0.00 0.00 0.00 55 1006.5
20260505212147 67 202 0.9 8.7 0.00 0.00 0.00 55 1006.4
20260505211652 67 187 3.5 8.7 0.00 0.00 0.00 54 1006.2
20260505211636 67 229 7.0 8.7 0.00 0.00 0.00 54 1006.4
20260505211315 68 234 3.5 8.7 0.00 0.00 0.00 54 1006.3
20260505211216 68 207 0.9 11.3 0.00 0.00 0.00 54 1006.5
20260505211116 68 226 4.3 11.3 0.00 0.00 0.00 54 1006.4
20260505211016 68 225 3.5 11.3 0.00 0.00 0.00 54 1006.3
20260505210915 68 216 5.2 11.3 0.00 0.00 0.00 54 1006.4
20260505210815 68 223 4.3 11.3 0.00 0.00 0.00 54 1006.2
20260505210716 68 204 0.9 11.3 0.00 0.00 0.00 53 1006.4
20260505210615 68 244 5.2 11.3 0.00 0.00 0.00 53 1006.4
20260505210513 68 203 4.3 11.3 0.00 0.00 0.00 53 1006.2
20260505210356 68 211 2.6 11.3 0.00 0.00 0.00 53 1006.3
20260505210333 68 219 1.7 8.7 0.00 0.00 0.00 53 1006.4
20260505210010 68 208 1.7 8.7 0.00 0.00 0.00 53 1006.0
20260505205910 68 229 2.6 8.7 0.00 0.00 0.00 53 1006.3
20260505205809 68 224 1.7 8.7 0.00 0.00 0.00 53 1006.3
20260505205705 68 219 3.5 8.7 0.00 0.00 0.00 53 1006.2
20260505205605 68 228 6.1 8.7 0.00 0.00 0.00 53 1006.4
20260505205505 68 200 0.9 8.7 0.00 0.00 0.00 53 1006.4
20260505205405 67 178 0.0 8.7 0.00 0.00 0.00 53 1006.3
20260505205322 68 182 0.9 6.1 0.00 0.00 0.00 53 1006.2
20260505205316 67 190 6.1 7.8 0.00 0.00 0.00 53 1006.4
20260505205254 67 190 1.7 6.1 0.00 0.00 0.00 53 1006.2
20260505205227 67 196 0.0 6.1 0.00 0.00 0.00 53 1006.3
20260505205208 67 181 0.9 6.1 0.00 0.00 0.00 53 1006.2
20260505204930 67 206 1.7 6.1 0.00 0.00 0.00 53 1006.2
20260505204913 68 182 0.9 6.1 0.00 0.00 0.00 53 1006.2
20260505204604 68 198 0.9 6.1 0.00 0.00 0.00 53 1006.2
20260505204500 68 205 0.0 6.1 0.00 0.00 0.00 52 1006.2
20260505204359 68 191 0.0 6.1 0.00 0.00 0.00 52 1006.3
20260505204259 67 207 3.5 6.1 0.00 0.00 0.00 52 1006.3
20260505204159 67 160 1.7 3.5 0.00 0.00 0.00 52 1006.2
20260505204100 67 200 0.9 3.5 0.00 0.00 0.00 52 1006.2
20260505204032 68 194 1.7 3.5 0.00 0.00 0.00 52 1006.3
20260505204024 67 184 0.9 3.5 0.00 0.00 0.00 52 1006.3
20260505204009 67 202 0.0 3.5 0.00 0.00 0.00 53 1006.0
20260505203954 68 188 0.0 3.5 0.00 0.00 0.00 52 1006.0
20260505203931 68 196 0.0 3.5 0.00 0.00 0.00 52 1006.0
20260505203916 68 199 0.9 3.5 0.00 0.00 0.00 52 1006.2
20260505203900 68 192 0.0 3.5 0.00 0.00 0.00 52 1005.8
20260505203845 68 181 0.9 3.5 0.00 0.00 0.00 52 1006.3
20260505203829 68 194 0.9 3.5 0.00 0.00 0.00 52 1006.5
20260505203807 68 190 0.0 2.6 0.00 0.00 0.00 52 1006.3
20260505203309 68 194 0.0 3.5 0.00 0.00 0.00 52 1006.0
20260505203253 68 196 0.0 3.5 0.00 0.00 0.00 52 1006.0
20260505202459 68 204 0.9 5.2 0.00 0.00 0.00 52 1006.3
20260505202400 68 199 0.0 5.2 0.00 0.00 0.00 52 1006.2
20260505202259 68 171 0.0 5.2 0.00 0.00 0.00 52 1006.2
20260505202159 68 201 1.7 5.2 0.00 0.00 0.00 52 1006.0
20260505202100 68 187 0.9 5.2 0.00 0.00 0.00 51 1006.0
20260505202000 68 199 0.9 5.2 0.00 0.00 0.00 52 1006.0
20260505201903 68 199 0.9 5.2 0.00 0.00 0.00 52 1006.3
20260505201832 69 203 0.9 3.5 0.00 0.00 0.00 50 1006.0
20260505201825 68 185 0.0 3.5 0.00 0.00 0.00 51 1006.2
20260505201818 68 190 0.0 5.2 0.00 0.00 0.00 52 1006.3
20260505201756 68 174 0.0 5.2 0.00 0.00 0.00 51 1006.2
20260505201740 68 175 0.9 5.2 0.00 0.00 0.00 51 1006.3
20260505201724 68 199 0.9 5.2 0.00 0.00 0.00 52 1006.0
20260505201707 68 207 0.9 5.2 0.00 0.00 0.00 52 1006.4
20260505201651 68 188 0.0 5.2 0.00 0.00 0.00 51 1005.9
20260505201628 68 198 0.0 5.2 0.00 0.00 0.00 51 1006.2
20260505201537 68 174 0.0 5.2 0.00 0.00 0.00 51 1006.0
20260505201512 68 196 1.7 5.2 0.00 0.00 0.00 51 1006.2
20260505201231 68 190 0.0 5.2 0.00 0.00 0.00 51 1006.3
20260505201209 68 207 0.0 5.2 0.00 0.00 0.00 51 1006.0
20260505201153 68 198 0.9 5.2 0.00 0.00 0.00 51 1006.2
20260505200918 68 209 0.0 5.2 0.00 0.00 0.00 50 1006.2
20260505200902 68 224 1.7 5.2 0.00 0.00 0.00 51 1006.2
20260505200413 68 194 0.0 3.5 0.00 0.00 0.00 51 1006.2
20260505195929 68 204 0.9 3.5 0.00 0.00 0.00 51 1006.2
20260505195913 69 190 0.0 3.5 0.00 0.00 0.00 50 1005.9
20260505195857 69 203 0.9 3.5 0.00 0.00 0.00 50 1006.0
20260505195546 69 187 0.0 3.5 0.00 0.00 0.00 50 1006.0
20260505195446 69 187 0.0 3.5 0.00 0.00 0.00 50 1006.2
20260505195341 69 165 0.0 3.5 0.00 0.00 0.00 50 1006.2
20260505195241 69 191 0.0 5.2 0.00 0.00 0.00 50 1006.0
20260505195141 69 190 1.7 5.2 0.00 0.00 0.00 50 1006.2
20260505195041 69 182 0.0 5.2 0.00 0.00 0.00 50 1006.0
20260505194941 69 191 1.7 5.2 0.00 0.00 0.00 49 1006.2
20260505194841 69 204 0.0 5.2 0.00 0.00 0.00 49 1006.3
20260505194741 69 181 0.9 6.1 0.00 0.00 0.00 49 1005.9
20260505194641 69 208 1.7 6.1 0.00 0.00 0.00 50 1006.2
20260505194540 69 202 0.0 7.0 0.00 0.00 0.00 50 1006.0
20260505194439 69 208 0.9 7.0 0.00 0.00 0.00 49 1006.3
20260505194339 69 198 2.6 7.0 0.00 0.00 0.00 49 1006.0
20260505194240 69 200 0.0 7.0 0.00 0.00 0.00 50 1006.2
20260505194136 69 192 0.9 7.0 0.00 0.00 0.00 50 1006.3
20260505194128 69 192 0.9 7.0 0.00 0.00 0.00 49 1006.2
20260505194028 69 206 0.0 7.0 0.00 0.00 0.00 49 1006.2
20260505194003 69 188 0.0 7.0 0.00 0.00 0.00 49 1006.2
20260505193947 69 194 4.3 7.0 0.00 0.00 0.00 49 1006.4
20260505193635 69 202 4.3 7.0 0.00 0.00 0.00 48 1005.9
20260505193626 69 202 4.3 7.0 0.00 0.00 0.00 49 1006.2
20260505193521 69 189 0.0 5.2 0.00 0.00 0.00 49 1006.0
20260505193423 69 264 3.5 5.2 0.00 0.00 0.00 49 1006.3
20260505193321 69 187 0.0 5.2 0.00 0.00 0.00 49 1006.0
20260505193301 69 216 3.5 5.2 0.00 0.00 0.00 48 1006.2
20260505193246 69 190 0.0 2.6 0.00 0.00 0.00 48 1006.0
20260505193237 69 200 0.0 2.6 0.00 0.00 0.00 48 1006.0
20260505192953 69 182 0.0 2.6 0.00 0.00 0.00 48 1006.0
20260505192937 69 196 0.9 2.6 0.00 0.00 0.00 48 1006.3
20260505192617 69 187 0.9 2.6 0.00 0.00 0.00 48 1006.2
20260505192516 69 188 0.0 2.6 0.00 0.00 0.00 48 1006.3
20260505192417 69 191 0.0 2.6 0.00 0.00 0.00 48 1006.0
20260505192317 69 192 0.0 2.6 0.00 0.00 0.00 48 1006.2
20260505192216 69 189 0.0 2.6 0.00 0.00 0.00 47 1006.3
20260505192116 69 183 0.0 2.6 0.00 0.00 0.00 48 1006.4
20260505192017 70 189 0.9 5.2 0.00 0.00 0.00 48 1006.5
20260505191952 70 187 0.0 5.2 0.00 0.00 0.00 47 1006.0
20260505191937 70 198 1.7 5.2 0.00 0.00 0.00 47 1006.3
20260505191623 70 194 0.0 5.2 0.00 0.00 0.00 48 1006.4
20260505191615 70 185 0.0 5.2 0.00 0.00 0.00 47 1006.4
20260505191515 70 192 0.0 5.2 0.00 0.00 0.00 47 1006.2
20260505191443 70 200 0.9 5.2 0.00 0.00 0.00 47 1006.3
20260505191427 70 198 0.9 5.2 0.00 0.00 0.00 47 1006.2
20260505191133 70 221 3.5 6.1 0.00 0.00 0.00 47 1006.4
20260505191124 70 234 1.7 6.1 0.00 0.00 0.00 47 1006.3
20260505191108 70 208 1.7 6.1 0.00 0.00 0.00 47 1006.2
20260505191052 70 195 1.7 6.1 0.00 0.00 0.00 47 1006.2
20260505191035 70 166 0.0 6.1 0.00 0.00 0.00 47 1006.2
20260505190801 70 220 1.7 6.1 0.00 0.00 0.00 47 1006.3
20260505190753 70 198 0.0 6.1 0.00 0.00 0.00 47 1006.3
20260505190738 70 199 0.9 6.1 0.00 0.00 0.00 47 1006.3
20260505190722 70 214 1.7 6.1 0.00 0.00 0.00 46 1006.4
20260505190706 70 204 0.9 6.1 0.00 0.00 0.00 47 1006.3
20260505190431 71 198 0.0 3.5 0.00 0.00 0.00 47 1006.2
20260505185857 71 202 2.6 3.5 0.00 0.00 0.00 46 1006.3
20260505185758 71 192 0.0 3.5 0.00 0.00 0.00 46 1006.3
20260505185733 71 194 0.9 3.5 0.00 0.00 0.00 46 1006.2
20260505185718 71 211 0.9 3.5 0.00 0.00 0.00 46 1006.3
20260505185710 71 203 2.6 3.5 0.00 0.00 0.00 46 1006.3
20260505185655 71 201 0.0 2.6 0.00 0.00 0.00 46 1006.0
20260505185639 71 196 0.9 2.6 0.00 0.00 0.00 46 1006.4
20260505185118 71 200 0.9 2.6 0.00 0.00 0.00 46 1006.3
20260505185058 71 187 0.0 2.6 0.00 0.00 0.00 46 1006.3
20260505184958 71 199 1.7 2.6 0.00 0.00 0.00 45 1005.9
20260505184858 71 216 1.7 2.6 0.00 0.00 0.00 45 1006.3
20260505184758 71 186 0.0 2.6 0.00 0.00 0.00 45 1006.0
20260505184740 71 192 0.0 2.6 0.00 0.00 0.00 45 1006.2
20260505184726 71 193 0.0 2.6 0.00 0.00 0.00 45 1006.2
20260505184718 71 198 0.0 5.2 0.00 0.00 0.00 45 1006.2
20260505184358 71 204 0.0 5.2 0.00 0.00 0.00 45 1006.4
20260505184257 71 206 0.0 5.2 0.00 0.00 0.00 45 1006.5
20260505184157 71 206 0.0 5.2 0.00 0.00 0.00 45 1006.0
20260505184117 71 210 0.9 5.2 0.00 0.00 0.00 45 1006.2
20260505184058 72 209 0.9 5.2 0.00 0.00 0.00 45 1006.2
20260505184035 72 201 0.9 5.2 0.00 0.00 0.00 45 1006.3
20260505184019 72 226 1.7 5.2 0.00 0.00 0.00 45 1005.8
20260505183657 72 196 0.9 5.2 0.00 0.00 0.00 45 1006.4
20260505183618 72 210 2.6 5.2 0.00 0.00 0.00 45 1005.9
20260505183557 72 222 3.5 5.2 0.00 0.00 0.00 45 1005.9
20260505183457 72 214 1.7 3.5 0.00 0.00 0.00 45 1006.0
20260505183357 72 217 1.7 3.5 0.00 0.00 0.00 45 1005.8
20260505183258 72 226 0.9 3.5 0.00 0.00 0.00 45 1006.0
20260505183157 72 230 1.7 5.2 0.00 0.00 0.00 45 1006.2
20260505183105 72 177 1.7 5.2 0.00 0.00 0.00 44 1006.2
20260505183057 72 220 0.9 5.2 0.00 0.00 0.00 44 1006.2
20260505183036 72 215 0.9 5.2 0.00 0.00 0.00 44 1005.9
20260505183028 72 209 0.9 5.2 0.00 0.00 0.00 44 1006.2
20260505183012 72 211 0.9 5.2 0.00 0.00 0.00 44 1006.2
20260505182954 72 198 0.9 5.2 0.00 0.00 0.00 44 1006.3
20260505182939 72 196 0.9 5.2 0.00 0.00 0.00 44 1006.0
20260505182711 72 202 0.9 5.2 0.00 0.00 0.00 44 1005.9
20260505182351 72 207 0.0 5.2 0.00 0.00 0.00 44 1006.0
20260505182247 72 211 2.6 5.2 0.00 0.00 0.00 44 1006.2
20260505182148 72 214 3.5 5.2 0.00 0.00 0.00 43 1006.0
20260505182057 72 236 1.7 5.2 0.00 0.00 0.00 44 1006.0
20260505182047 72 208 0.9 5.2 0.00 0.00 0.00 44 1006.0
20260505182035 73 231 1.7 7.0 0.00 0.00 0.00 43 1005.9
20260505182030 73 194 0.9 7.0 0.00 0.00 0.00 43 1005.8
20260505182025 74 215 1.7 7.8 0.00 0.00 0.00 42 1005.7
20260505182017 72 200 0.0 7.0 0.00 0.00 0.00 44 1005.9
20260505182001 72 237 2.6 7.0 0.00 0.00 0.00 44 1006.0
20260505181946 72 225 1.7 7.0 0.00 0.00 0.00 43 1006.0
20260505181930 72 211 0.0 7.0 0.00 0.00 0.00 43 1005.8
20260505181702 73 207 0.0 7.0 0.00 0.00 0.00 43 1005.9
20260505181646 73 198 0.0 7.0 0.00 0.00 0.00 43 1006.0
20260505181631 73 200 0.0 7.0 0.00 0.00 0.00 43 1006.0
20260505181614 73 205 0.9 7.0 0.00 0.00 0.00 43 1005.8
20260505181558 73 208 0.0 7.0 0.00 0.00 0.00 43 1005.9
20260505181329 73 199 2.6 7.0 0.00 0.00 0.00 43 1005.8
20260505181314 73 200 0.0 6.1 0.00 0.00 0.00 43 1005.8
20260505181258 73 233 0.9 6.1 0.00 0.00 0.00 43 1005.9
20260505181023 73 222 1.7 7.8 0.00 0.00 0.00 42 1005.7
20260505181008 73 207 1.7 7.8 0.00 0.00 0.00 42 1006.2
20260505180740 73 237 1.7 7.8 0.00 0.00 0.00 42 1005.8
20260505180724 73 187 2.6 7.8 0.00 0.00 0.00 42 1006.0
20260505180447 73 207 0.9 7.8 0.00 0.00 0.00 42 1005.8
20260505175912 74 192 0.9 7.8 0.00 0.00 0.00 41 1006.0
20260505175856 74 209 5.2 11.3 0.00 0.00 0.00 41 1006.0
20260505175555 74 202 0.9 11.3 0.00 0.00 0.00 41 1006.3
20260505175534 74 252 1.7 11.3 0.00 0.00 0.00 41 1006.3
20260505175435 74 201 1.7 11.3 0.00 0.00 0.00 41 1005.9
20260505175333 74 188 4.3 11.3 0.00 0.00 0.00 40 1005.9
20260505175234 74 145 0.9 11.3 0.00 0.00 0.00 40 1005.9
20260505175213 74 222 1.7 11.3 0.00 0.00 0.00 40 1006.3
20260505175157 74 223 1.7 11.3 0.00 0.00 0.00 40 1005.8
20260505175149 74 171 0.9 11.3 0.00 0.00 0.00 40 1005.9
20260505174828 74 216 1.7 11.3 0.00 0.00 0.00 39 1005.8
20260505174728 74 225 5.2 11.3 0.00 0.00 0.00 39 1005.7
20260505174707 74 229 0.0 11.3 0.00 0.00 0.00 39 1005.9
20260505174651 74 201 2.6 11.3 0.00 0.00 0.00 39 1005.9
20260505174328 74 163 3.5 11.3 0.00 0.00 0.00 38 1005.7
20260505174228 74 207 1.7 11.3 0.00 0.00 0.00 38 1006.0
20260505174211 74 209 3.5 11.3 0.00 0.00 0.00 38 1005.9
20260505174155 74 217 4.3 11.3 0.00 0.00 0.00 37 1005.9
20260505174147 74 240 2.6 11.3 0.00 0.00 0.00 37 1005.8
20260505173827 75 265 0.9 11.3 0.00 0.00 0.00 36 1005.9
20260505173728 75 178 0.9 11.3 0.00 0.00 0.00 36 1005.8
20260505173629 75 221 0.0 11.3 0.00 0.00 0.00 36 1005.7
20260505173614 75 230 2.6 11.3 0.00 0.00 0.00 35 1005.7
20260505173607 75 284 6.1 11.3 0.00 0.00 0.00 35 1005.8
20260505173550 75 259 2.6 5.2 0.00 0.00 0.00 35 1005.8
20260505173228 75 192 0.0 5.2 0.00 0.00 0.00 35 1005.8
20260505173129 75 189 0.0 5.2 0.00 0.00 0.00 35 1005.8
20260505173049 75 248 0.0 5.2 0.00 0.00 0.00 33 1005.8
20260505173027 75 222 3.5 5.2 0.00 0.00 0.00 33 1005.7
20260505172917 75 227 0.0 6.1 0.00 0.00 0.00 33 1005.7
20260505172850 75 205 0.0 6.1 0.00 0.00 0.00 33 1005.8
20260505172835 75 194 0.0 6.1 0.00 0.00 0.00 33 1005.8
20260505172600 75 216 4.3 6.1 0.00 0.00 0.00 33 1005.7
20260505172551 75 194 0.0 7.0 0.00 0.00 0.00 33 1005.5
20260505172536 75 208 1.7 7.0 0.00 0.00 0.00 33 1005.5
20260505172215 76 198 0.0 7.0 0.00 0.00 0.00 33 1005.7
20260505172116 76 214 0.0 7.0 0.00 0.00 0.00 32 1005.6
20260505172106 76 208 1.7 13.0 0.00 0.00 0.00 31 1005.8
20260505172056 76 210 3.5 7.0 0.00 0.00 0.00 32 1005.6
20260505172047 76 203 3.5 7.0 0.00 0.00 0.00 32 1005.5
20260505172031 76 222 0.0 7.0 0.00 0.00 0.00 32 1005.8
20260505172014 76 201 0.0 7.0 0.00 0.00 0.00 32 1005.5
20260505171958 76 195 2.6 7.0 0.00 0.00 0.00 32 1005.7
20260505171943 76 198 0.9 12.2 0.00 0.00 0.00 32 1005.8
20260505171930 76 227 4.3 12.2 0.00 0.00 0.00 31 1005.8